FW1385 Weather Reports


Display with metric or nautical units.
time (UTC)temp
F
wind
direction
speed
MPH
gust
MPH
rain 1hr
in
rain 24hr
in
rain mn
in
humidity
%
barometer
mb
20260506141103 56 294 1.0 3.0 0.06 0.42 0.39 94 1009.6
20260506141003 56 291 1.0 3.0 0.06 0.42 0.39 94 1009.6
20260506140804 56 268 0.0 3.0 0.06 0.42 0.39 94 1009.6
20260506140703 56 241 0.0 3.0 0.06 0.42 0.39 94 1009.6
20260506140603 56 222 0.0 2.0 0.07 0.42 0.39 94 1009.6
20260506140503 56 222 0.0 2.0 0.07 0.42 0.39 94 1009.6
20260506140403 56 230 0.0 2.0 0.07 0.42 0.39 94 1009.7
20260506140303 56 232 0.0 2.0 0.07 0.42 0.39 94 1009.6
20260506140203 56 242 0.0 2.0 0.07 0.42 0.39 93 1009.6
20260506140018 56 245 1.0 3.0 0.07 0.42 0.39 94 1009.7
20260506140003 56 243 1.0 3.0 0.07 0.42 0.39 94 1009.7
20260506135903 56 242 1.0 3.0 0.07 0.42 0.39 94 1009.7
20260506135818 56 239 1.0 3.0 0.07 0.42 0.39 94 1009.7
20260506135704 56 232 1.0 3.0 0.07 0.42 0.39 94 1009.7
20260506135503 56 234 1.0 3.0 0.07 0.42 0.39 94 1009.6
20260506135403 56 231 1.0 3.0 0.07 0.42 0.39 94 1009.3
20260506135305 56 230 1.0 3.0 0.07 0.42 0.39 93 1009.0
20260506135203 55 226 1.0 3.0 0.07 0.42 0.39 93 1009.0
20260506135103 55 216 1.0 2.0 0.07 0.42 0.39 93 1008.9
20260506135003 55 263 1.0 2.0 0.07 0.42 0.39 93 1008.9
20260506134904 55 301 1.0 2.0 0.07 0.42 0.39 93 1008.9
20260506134804 55 349 1.0 3.0 0.07 0.42 0.39 93 1008.7
20260506134718 55 360 1.0 3.0 0.07 0.42 0.39 93 1008.7
20260506134703 55 2 1.0 3.0 0.07 0.42 0.39 93 1008.7
20260506134603 55 8 1.0 3.0 0.07 0.42 0.39 93 1008.1
20260506134403 55 16 1.0 5.0 0.07 0.42 0.39 93 1007.9
20260506134303 55 16 2.0 5.0 0.07 0.42 0.39 93 1007.6
20260506134203 55 19 2.0 5.0 0.07 0.42 0.39 93 1007.6
20260506134103 55 17 2.0 5.0 0.07 0.42 0.39 93 1007.5
20260506134003 55 18 2.0 5.0 0.06 0.41 0.38 93 1007.5
20260506133903 55 17 2.0 5.0 0.06 0.41 0.38 93 1007.5
20260506133803 55 15 1.0 5.0 0.06 0.41 0.38 93 1007.3
20260506133703 55 8 2.0 5.0 0.06 0.41 0.38 93 1007.3
20260506133603 55 1 1.0 5.0 0.06 0.41 0.38 93 1007.1
20260506133503 55 348 1.0 5.0 0.06 0.41 0.38 93 1007.3
20260506133403 55 337 1.0 4.0 0.06 0.41 0.38 93 1007.3
20260506133303 55 318 1.0 4.0 0.06 0.41 0.38 93 1007.7
20260506133217 55 296 1.0 3.0 0.06 0.41 0.38 92 1007.7
20260506133203 55 287 1.0 3.0 0.06 0.41 0.38 92 1008.3
20260506133104 55 284 1.0 2.0 0.06 0.41 0.38 92 1008.3
20260506132904 56 284 1.0 2.0 0.06 0.41 0.38 92 1008.5
20260506132804 56 284 1.0 2.0 0.05 0.40 0.38 92 1008.8
20260506132718 56 284 1.0 2.0 0.05 0.40 0.37 92 1008.8
20260506132703 56 284 1.0 2.0 0.05 0.40 0.37 92 1009.0
20260506132603 56 284 1.0 2.0 0.05 0.40 0.37 92 1009.0
20260506132404 56 284 1.0 2.0 0.05 0.40 0.37 92 1009.3
20260506132307 56 284 1.0 2.0 0.05 0.40 0.37 92 1009.6
20260506132204 56 284 1.0 2.0 0.04 0.39 0.36 92 1009.7
20260506132118 56 284 1.0 2.0 0.04 0.39 0.36 92 1009.7
20260506132003 56 284 1.0 2.0 0.03 0.38 0.36 92 1010.1
20260506131917 56 283 1.0 2.0 0.03 0.38 0.35 92 1010.1
20260506131804 56 282 1.0 2.0 0.02 0.37 0.34 92 1010.4
20260506131603 56 282 0.0 2.0 0.02 0.37 0.34 92 1010.5
20260506131517 56 282 0.0 2.0 0.01 0.36 0.34 92 1010.5
20260506131503 56 282 0.0 2.0 0.01 0.36 0.33 92 1010.5
20260506131404 56 282 0.0 2.0 0.01 0.36 0.33 92 1010.5
20260506131318 56 282 0.0 2.0 0.01 0.36 0.33 92 1010.5
20260506131003 56 281 0.0 2.0 0.01 0.36 0.33 92 1010.4
20260506130904 56 282 0.0 2.0 0.01 0.36 0.33 92 1010.3
20260506130803 56 282 0.0 2.0 0.01 0.36 0.33 92 1010.3
20260506130703 56 282 1.0 2.0 0.01 0.36 0.33 92 1010.3
20260506130503 56 283 1.0 2.0 0.00 0.35 0.32 92 1010.2
20260506130403 56 280 1.0 3.0 0.00 0.35 0.32 92 1010.3
20260506130304 56 278 1.0 3.0 0.00 0.35 0.32 92 1010.3
20260506130203 56 278 1.0 3.0 0.00 0.35 0.32 92 1010.3
20260506130117 56 277 1.0 3.0 0.00 0.35 0.32 92 1010.3
20260506130103 56 276 1.0 3.0 0.00 0.35 0.32 92 1010.3
20260506130004 56 274 1.0 3.0 0.00 0.35 0.32 92 1010.3
20260506125804 56 270 1.0 3.0 0.00 0.35 0.32 92 1010.3
20260506125703 56 267 1.0 3.0 0.00 0.35 0.32 92 1010.1
20260506125603 57 266 1.0 3.0 0.00 0.35 0.32 92 1010.0
20260506125503 57 268 1.0 3.0 0.00 0.35 0.32 92 1010.0
20260506125403 57 273 0.0 2.0 0.00 0.35 0.32 92 1009.9
20260506125305 57 282 1.0 2.0 0.00 0.35 0.32 92 1009.9
20260506125203 57 287 1.0 2.0 0.00 0.35 0.32 92 1009.8
20260506125103 57 292 1.0 2.0 0.00 0.35 0.32 92 1009.8
20260506125003 57 296 1.0 3.0 0.00 0.35 0.32 92 1009.8
20260506124919 57 299 1.0 3.0 0.00 0.35 0.32 92 1009.8
20260506124904 57 301 1.0 3.0 0.00 0.35 0.32 92 1009.8
20260506124803 57 301 1.0 3.0 0.00 0.35 0.32 92 1009.8
20260506124603 57 309 1.0 3.0 0.00 0.35 0.32 92 1009.8
20260506124503 57 314 1.0 4.0 0.00 0.35 0.32 92 1009.8
20260506124403 57 315 1.0 4.0 0.00 0.35 0.32 92 1009.6
20260506124304 57 320 1.0 4.0 0.00 0.35 0.32 92 1009.7
20260506124204 57 326 1.0 4.0 0.00 0.35 0.32 92 1009.7
20260506124104 57 330 1.0 4.0 0.00 0.35 0.32 92 1009.7
20260506124004 57 333 1.0 4.0 0.00 0.35 0.32 92 1009.7
20260506123904 57 338 1.0 4.0 0.00 0.35 0.32 92 1009.6
20260506123817 57 338 1.0 4.0 0.00 0.35 0.32 92 1009.6
20260506123804 57 338 1.0 4.0 0.00 0.35 0.32 92 1009.5
20260506123703 57 338 1.0 4.0 0.00 0.35 0.32 92 1009.5
20260506123403 57 330 1.0 2.0 0.00 0.35 0.32 92 1009.4
20260506123303 57 321 1.0 2.0 0.00 0.35 0.32 92 1009.4
20260506123203 57 314 1.0 2.0 0.00 0.35 0.32 92 1009.4
20260506123103 57 313 1.0 2.0 0.00 0.35 0.32 92 1009.4
20260506123004 58 306 1.0 2.0 0.00 0.35 0.32 92 1009.4
20260506122903 58 299 1.0 4.0 0.00 0.35 0.32 92 1009.3
20260506122803 58 296 1.0 4.0 0.00 0.35 0.32 92 1009.2
20260506122703 58 281 1.0 4.0 0.00 0.35 0.32 92 1009.2
20260506122604 58 258 1.0 4.0 0.00 0.35 0.32 92 1009.1
20260506122504 58 247 1.0 4.0 0.00 0.35 0.32 92 1009.1
20260506122404 58 235 1.0 4.0 0.00 0.35 0.32 92 1009.1
20260506122305 58 229 1.0 4.0 0.00 0.35 0.32 92 1009.0
20260506122203 58 224 1.0 4.0 0.00 0.35 0.32 92 1009.0
20260506122104 58 223 1.0 4.0 0.00 0.35 0.32 92 1008.9
20260506122003 58 201 1.0 4.0 0.00 0.35 0.32 92 1008.8
20260506121903 58 194 1.0 4.0 0.00 0.35 0.32 92 1008.8
20260506121804 58 203 1.0 3.0 0.00 0.35 0.32 92 1008.7
20260506121703 58 218 1.0 3.0 0.00 0.35 0.32 92 1008.7
20260506121604 58 267 1.0 3.0 0.00 0.35 0.32 92 1008.7
20260506121517 58 290 1.0 3.0 0.00 0.35 0.32 92 1008.7
20260506121503 58 295 1.0 3.0 0.00 0.35 0.32 92 1008.7
20260506121404 58 303 1.0 3.0 0.00 0.35 0.32 92 1008.7
20260506121204 58 307 1.0 3.0 0.00 0.35 0.32 92 1008.6
20260506121103 58 308 1.0 3.0 0.00 0.35 0.32 92 1008.4
20260506120904 58 317 1.0 2.0 0.00 0.35 0.32 92 1008.4
20260506120804 58 317 1.0 2.0 0.00 0.35 0.32 92 1008.5
20260506120720 58 317 1.0 2.0 0.00 0.35 0.32 92 1008.5
20260506120519 58 317 0.0 2.0 0.00 0.35 0.32 92 1008.4
20260506120403 58 309 0.0 2.0 0.00 0.35 0.32 92 1008.4
20260506120203 58 306 0.0 3.0 0.00 0.35 0.32 92 1008.4
20260506120103 58 309 0.0 3.0 0.00 0.35 0.32 92 1008.4
20260506120004 58 310 0.0 3.0 0.00 0.35 0.32 92 1008.3
20260506115918 58 320 0.0 3.0 0.00 0.35 0.32 92 1008.3
20260506115903 58 325 0.0 3.0 0.00 0.35 0.32 92 1008.3
20260506115604 58 341 1.0 3.0 0.00 0.35 0.32 92 1008.0
20260506115504 58 342 1.0 3.0 0.01 0.35 0.32 92 1008.0
20260506115419 58 347 0.0 3.0 0.02 0.35 0.32 92 1008.0
20260506115404 59 349 0.0 3.0 0.02 0.35 0.32 92 1008.1
20260506115318 59 360 0.0 2.0 0.05 0.35 0.32 92 1008.1
20260506115307 59 1 0.0 2.0 0.05 0.35 0.32 92 1008.1
20260506115003 59 1 0.0 2.0 0.06 0.35 0.32 92 1007.9
20260506114903 59 358 0.0 2.0 0.06 0.35 0.32 92 1007.8
20260506114704 59 357 0.0 2.0 0.07 0.35 0.32 92 1008.0
20260506114603 59 290 0.0 1.0 0.07 0.35 0.32 92 1008.0
20260506114503 59 290 0.0 1.0 0.07 0.35 0.32 92 1007.9
20260506114403 59 290 0.0 1.0 0.08 0.35 0.32 92 1007.7
20260506114304 59 290 0.0 1.0 0.08 0.35 0.32 92 1007.7
20260506114203 59 290 0.0 1.0 0.08 0.35 0.32 92 1007.8
20260506114103 59 290 0.0 1.0 0.08 0.35 0.32 92 1007.8
20260506114003 59 290 0.0 1.0 0.08 0.35 0.32 92 1007.9
20260506113903 59 0 0.0 0.0 0.08 0.35 0.32 92 1007.8
20260506113804 59 0 0.0 0.0 0.08 0.35 0.32 92 1007.8
20260506113604 59 0 0.0 0.0 0.09 0.35 0.32 92 1007.5
20260506113503 59 0 0.0 0.0 0.10 0.35 0.32 92 1007.5
20260506113403 59 0 0.0 0.0 0.11 0.35 0.32 92 1007.5
20260506113303 59 0 0.0 0.0 0.11 0.35 0.32 92 1007.5
20260506113218 59 0 0.0 0.0 0.12 0.35 0.32 92 1007.5
20260506113204 59 0 0.0 0.0 0.12 0.35 0.32 91 1007.5
20260506113104 59 0 0.0 0.0 0.12 0.35 0.32 91 1007.5
20260506113018 59 0 0.0 0.0 0.12 0.35 0.32 91 1007.5
20260506112903 59 0 0.0 0.0 0.12 0.35 0.32 91 1007.4
20260506112704 59 0 0.0 0.0 0.12 0.35 0.32 91 1007.2
20260506112603 59 0 0.0 0.0 0.12 0.35 0.32 91 1007.2
20260506112403 59 0 0.0 0.0 0.12 0.35 0.32 91 1007.2
20260506112306 59 0 0.0 0.0 0.12 0.35 0.32 91 1007.2
20260506112204 59 0 0.0 0.0 0.12 0.35 0.32 91 1007.3
20260506112004 59 0 0.0 0.0 0.12 0.35 0.32 91 1007.2
20260506111904 59 0 0.0 0.0 0.12 0.35 0.32 91 1007.1
20260506111803 59 0 0.0 0.0 0.12 0.35 0.32 91 1007.1
20260506111703 59 0 0.0 0.0 0.12 0.35 0.32 91 1007.1
20260506111604 59 0 0.0 0.0 0.12 0.35 0.32 91 1007.0
20260506111503 59 0 0.0 0.0 0.12 0.35 0.32 91 1007.0
20260506111417 59 0 0.0 0.0 0.12 0.35 0.32 91 1007.0
20260506111404 59 0 0.0 0.0 0.12 0.35 0.32 90 1007.0
20260506111303 59 0 0.0 0.0 0.12 0.35 0.32 90 1007.1
20260506111104 59 0 0.0 0.0 0.12 0.35 0.32 90 1007.2
20260506111003 59 0 0.0 0.0 0.12 0.35 0.32 90 1007.2
20260506110903 59 0 0.0 0.0 0.12 0.35 0.32 90 1007.3
20260506110804 59 0 0.0 0.0 0.12 0.35 0.32 90 1007.4
20260506110704 59 0 0.0 0.0 0.12 0.35 0.32 90 1007.4
20260506110603 59 0 0.0 0.0 0.12 0.35 0.32 90 1007.3
20260506110503 59 0 0.0 0.0 0.12 0.35 0.32 90 1007.3
20260506110303 60 0 0.0 0.0 0.12 0.35 0.32 89 1007.4
20260506110203 60 0 0.0 0.0 0.12 0.35 0.32 89 1007.4
20260506110103 60 0 0.0 0.0 0.12 0.35 0.32 89 1007.6
20260506110004 60 0 0.0 0.0 0.12 0.35 0.32 89 1007.6
20260506105704 60 255 0.0 1.0 0.12 0.35 0.32 89 1007.6
20260506105603 60 255 0.0 1.0 0.12 0.35 0.32 89 1007.5
20260506105503 60 255 0.0 1.0 0.11 0.34 0.31 89 1007.4
20260506105305 60 255 0.0 1.0 0.07 0.30 0.27 89 1007.6
20260506105203 60 255 0.0 1.0 0.07 0.30 0.27 89 1007.6
20260506105103 60 255 0.0 1.0 0.06 0.29 0.26 89 1007.7
20260506105003 60 255 0.0 1.0 0.06 0.29 0.26 89 1007.8
20260506104918 60 0 0.0 0.0 0.07 0.29 0.26 88 1007.8
20260506104904 60 240 0.0 1.0 0.07 0.29 0.26 88 1007.8
20260506104803 61 240 0.0 1.0 0.06 0.28 0.25 88 1007.9
20260506104603 61 240 0.0 1.0 0.06 0.28 0.25 88 1007.8
20260506104504 61 240 0.0 1.0 0.06 0.28 0.25 88 1007.8
20260506104403 61 240 0.0 1.0 0.05 0.27 0.24 88 1007.8
20260506104303 61 240 0.0 1.0 0.05 0.27 0.24 88 1007.9
20260506104203 61 240 0.0 1.0 0.06 0.27 0.24 88 1007.9
20260506104003 61 240 0.0 1.0 0.08 0.27 0.24 88 1007.9
20260506103903 61 240 0.0 1.0 0.10 0.27 0.24 88 1007.9
20260506103803 61 245 0.0 2.0 0.11 0.27 0.24 88 1007.8
20260506103703 61 256 1.0 4.0 0.11 0.26 0.23 88 1007.8
20260506103603 61 273 1.0 4.0 0.12 0.26 0.23 88 1007.8
20260506103503 61 271 1.0 4.0 0.12 0.25 0.22 88 1008.1
20260506103404 61 269 1.0 4.0 0.13 0.24 0.21 88 1008.1
20260506103304 61 270 1.0 4.0 0.13 0.24 0.21 88 1008.1
20260506103218 62 268 1.0 4.0 0.13 0.23 0.20 88 1008.1
20260506103203 62 274 1.0 4.0 0.13 0.23 0.20 88 1008.1
20260506103104 62 275 1.0 4.0 0.14 0.23 0.20 88 1008.1
20260506103017 62 273 1.0 4.0 0.14 0.23 0.20 88 1007.9
20260506102903 62 267 1.0 5.0 0.15 0.23 0.20 87 1007.9
20260506102818 62 268 1.0 5.0 0.15 0.23 0.20 87 1007.9
20260506102704 62 262 1.0 5.0 0.15 0.23 0.20 87 1007.8
20260506102518 62 247 1.0 5.0 0.16 0.23 0.20 87 1007.6
20260506102503 62 246 1.0 5.0 0.16 0.23 0.20 87 1007.6
20260506102403 62 232 1.0 5.0 0.16 0.23 0.20 87 1007.5
20260506102317 63 220 1.0 5.0 0.16 0.23 0.20 87 1007.5
20260506102218 63 232 1.0 5.0 0.16 0.23 0.20 87 1007.3
20260506102203 63 229 1.0 5.0 0.16 0.23 0.20 87 1007.3
20260506101903 64 262 1.0 5.0 0.17 0.23 0.20 88 1007.2
20260506101803 64 261 1.0 5.0 0.17 0.23 0.20 88 1007.2
20260506101604 64 279 2.0 5.0 0.18 0.23 0.20 89 1007.2
20260506101503 64 291 2.0 5.0 0.18 0.23 0.20 89 1007.1
20260506101404 64 297 1.0 5.0 0.18 0.23 0.20 89 1007.2
20260506101303 65 301 1.0 5.0 0.18 0.23 0.20 89 1007.2
20260506101203 65 299 1.0 5.0 0.18 0.23 0.20 90 1007.4
20260506101116 65 298 1.0 5.0 0.18 0.23 0.20 90 1007.4
20260506101103 65 297 1.0 5.0 0.18 0.23 0.20 90 1007.3
20260506101017 65 299 1.0 5.0 0.19 0.23 0.20 90 1007.3
20260506101003 65 300 1.0 5.0 0.19 0.23 0.20 90 1007.3
20260506100717 66 313 0.0 5.0 0.19 0.23 0.20 91 1007.1
20260506100703 66 319 0.0 3.0 0.19 0.23 0.20 91 1007.1
20260506100603 66 321 0.0 3.0 0.19 0.23 0.20 91 1007.1
20260506100403 66 0 0.0 0.0 0.19 0.23 0.20 91 1006.9
20260506100304 66 0 0.0 0.0 0.19 0.23 0.20 91 1006.9
20260506100203 66 0 0.0 0.0 0.19 0.23 0.20 91 1006.8
20260506095803 66 0 0.0 0.0 0.20 0.23 0.20 91 1006.9
20260506095703 66 0 0.0 0.0 0.20 0.23 0.20 91 1006.9
20260506095604 66 0 0.0 0.0 0.20 0.23 0.20 91 1006.8
20260506095505 66 0 0.0 0.0 0.20 0.23 0.20 91 1006.8
20260506095305 66 0 0.0 0.0 0.20 0.23 0.20 91 1006.6
20260506095204 66 0 0.0 0.0 0.20 0.23 0.20 91 1006.6
20260506095104 66 0 0.0 0.0 0.20 0.23 0.20 91 1006.6
20260506095003 66 0 0.0 0.0 0.20 0.23 0.20 91 1006.6
20260506094917 66 0 0.0 0.0 0.19 0.22 0.20 91 1006.5
20260506094903 66 0 0.0 0.0 0.19 0.22 0.19 91 1006.5
20260506094803 66 0 0.0 0.0 0.19 0.22 0.19 91 1006.4
20260506094604 66 0 0.0 0.0 0.19 0.22 0.19 91 1006.4
20260506094504 66 0 0.0 0.0 0.19 0.22 0.19 91 1006.4
20260506094304 66 0 0.0 0.0 0.19 0.22 0.19 90 1006.6
20260506094204 66 0 0.0 0.0 0.18 0.21 0.18 90 1006.6
20260506094103 67 0 0.0 0.0 0.18 0.21 0.18 90 1006.7
20260506093904 67 0 0.0 0.0 0.14 0.17 0.14 90 1006.8
20260506093818 67 0 0.0 0.0 0.13 0.16 0.14 90 1007.0
20260506093804 67 0 0.0 0.0 0.13 0.16 0.13 90 1007.0
20260506093703 67 0 0.0 0.0 0.12 0.15 0.12 90 1007.0
20260506093504 67 0 0.0 0.0 0.10 0.13 0.10 89 1006.8
20260506093403 67 186 0.0 1.0 0.08 0.11 0.09 89 1006.8
20260506093303 67 186 0.0 1.0 0.08 0.11 0.08 89 1006.9
20260506093218 67 186 0.0 1.0 0.07 0.10 0.07 89 1006.9
20260506093103 67 186 0.0 1.0 0.06 0.09 0.06 89 1006.8
20260506093017 67 186 0.0 1.0 0.06 0.09 0.06 88 1006.8
20260506092904 67 186 0.0 1.0 0.05 0.08 0.05 88 1006.8
20260506092704 67 186 0.0 1.0 0.05 0.08 0.05 88 1006.6
20260506092603 67 186 0.0 1.0 0.04 0.07 0.04 88 1006.4
20260506092503 67 186 0.0 1.0 0.04 0.07 0.04 88 1006.5
20260506092403 67 186 0.0 1.0 0.04 0.07 0.04 88 1006.5
20260506092203 67 186 0.0 1.0 0.04 0.07 0.04 88 1006.7
20260506092104 67 186 0.0 1.0 0.04 0.07 0.04 88 1006.7
20260506092003 67 186 0.0 1.0 0.03 0.06 0.03 87 1006.6
20260506091904 68 186 0.0 1.0 0.03 0.06 0.03 87 1006.6
20260506091804 68 186 0.0 1.0 0.03 0.06 0.03 87 1006.6
20260506091703 68 186 0.0 1.0 0.03 0.06 0.03 86 1006.6
20260506091603 68 186 0.0 1.0 0.02 0.05 0.02 86 1006.6
20260506091503 68 186 0.0 1.0 0.02 0.05 0.02 86 1006.5
20260506091403 68 186 0.0 2.0 0.02 0.05 0.02 86 1006.5
20260506091304 68 186 0.0 2.0 0.02 0.05 0.02 86 1006.5
20260506091203 68 186 0.0 2.0 0.02 0.05 0.02 86 1006.5
20260506091003 68 186 0.0 2.0 0.01 0.04 0.01 85 1006.5
20260506090903 68 186 0.0 2.0 0.01 0.04 0.01 85 1006.5
20260506090803 68 186 0.0 2.0 0.01 0.04 0.01 85 1006.5
20260506090703 68 186 0.0 2.0 0.01 0.04 0.01 85 1006.4
20260506090617 68 186 1.0 2.0 0.01 0.04 0.01 85 1006.4
20260506090603 68 186 1.0 2.0 0.01 0.04 0.01 84 1006.4
20260506090503 68 186 1.0 2.0 0.01 0.04 0.01 84 1006.3
20260506090204 69 198 1.0 5.0 0.01 0.04 0.01 83 1006.4
20260506090118 69 233 1.0 5.0 0.01 0.04 0.01 83 1006.4
20260506090017 69 240 1.0 5.0 0.01 0.04 0.01 83 1006.2
20260506090004 69 241 1.0 5.0 0.01 0.04 0.01 82 1006.2
20260506085716 69 267 1.0 5.0 0.00 0.03 0.00 82 1006.1
20260506085704 69 270 1.0 5.0 0.00 0.03 0.00 82 1006.1
20260506085603 69 288 0.0 5.0 0.00 0.03 0.00 82 1006.1
20260506085404 69 311 0.0 5.0 0.00 0.03 0.00 82 1005.9
20260506085305 69 312 1.0 5.0 0.00 0.03 0.00 81 1005.9
20260506085203 69 314 0.0 4.0 0.00 0.03 0.00 81 1005.9
20260506085104 69 321 1.0 2.0 0.00 0.03 0.00 81 1005.9
20260506085003 69 321 1.0 3.0 0.00 0.03 0.00 81 1005.8
20260506084904 69 321 1.0 3.0 0.00 0.03 0.00 80 1005.7
20260506084803 69 321 1.0 3.0 0.00 0.03 0.00 80 1005.7
20260506084704 69 318 1.0 3.0 0.00 0.03 0.00 80 1005.6
20260506084603 69 316 1.0 3.0 0.00 0.03 0.00 80 1005.6
20260506084504 69 306 1.0 3.0 0.00 0.03 0.00 80 1005.6
20260506084404 69 301 1.0 3.0 0.00 0.03 0.00 80 1005.6
20260506084303 69 274 1.0 3.0 0.00 0.03 0.00 80 1005.6
20260506084203 69 213 1.0 3.0 0.00 0.03 0.00 79 1005.4
20260506084104 69 189 1.0 3.0 0.00 0.03 0.00 79 1005.3
20260506084003 69 175 1.0 3.0 0.00 0.03 0.00 79 1005.3
20260506083903 69 172 1.0 3.0 0.00 0.03 0.00 79 1005.3
20260506083818 69 169 1.0 3.0 0.00 0.03 0.00 79 1005.3
20260506083804 69 167 1.0 3.0 0.00 0.03 0.00 79 1005.3
20260506083703 69 165 1.0 3.0 0.00 0.03 0.00 79 1005.2
20260506083504 70 170 1.0 4.0 0.00 0.03 0.00 79 1005.2
20260506083403 70 174 1.0 4.0 0.00 0.03 0.00 79 1005.1
20260506083317 70 174 1.0 4.0 0.00 0.03 0.00 79 1005.1
20260506083203 70 176 1.0 4.0 0.00 0.03 0.00 79 1005.0
20260506083118 70 177 1.0 4.0 0.00 0.03 0.00 79 1005.0
20260506083003 70 173 1.0 4.0 0.00 0.03 0.00 78 1005.0
20260506082803 70 175 1.0 4.0 0.00 0.03 0.00 78 1004.7
20260506082704 70 173 1.0 4.0 0.00 0.03 0.00 78 1004.7
20260506082604 70 169 1.0 4.0 0.00 0.03 0.00 78 1004.7
20260506082503 70 167 1.0 7.0 0.00 0.03 0.00 77 1004.7
20260506082403 70 164 1.0 7.0 0.00 0.03 0.00 77 1004.8
20260506082305 70 164 1.0 7.0 0.00 0.03 0.00 76 1004.8
20260506082204 70 167 1.0 7.0 0.00 0.03 0.00 76 1004.8
20260506082103 70 168 2.0 7.0 0.00 0.03 0.00 76 1004.8
20260506082003 70 170 2.0 7.0 0.00 0.03 0.00 76 1004.8
20260506081904 70 172 2.0 7.0 0.00 0.03 0.00 75 1004.8
20260506081803 70 174 2.0 7.0 0.00 0.03 0.00 75 1004.8
20260506081704 70 175 2.0 7.0 0.00 0.03 0.00 75 1004.8
20260506081604 70 179 2.0 7.0 0.00 0.03 0.00 75 1004.7
20260506081503 70 178 2.0 6.0 0.00 0.03 0.00 74 1004.7
20260506081403 70 177 2.0 6.0 0.00 0.03 0.00 74 1004.8
20260506081304 70 175 2.0 6.0 0.00 0.03 0.00 74 1004.7
20260506081217 70 172 2.0 6.0 0.00 0.03 0.00 74 1004.7
20260506081117 70 169 2.0 6.0 0.00 0.03 0.00 74 1004.6
20260506081103 70 170 2.0 6.0 0.00 0.03 0.00 74 1004.6
20260506080804 70 169 2.0 6.0 0.00 0.03 0.00 74 1004.4
20260506080703 70 170 2.0 6.0 0.00 0.03 0.00 74 1004.4
20260506080604 70 165 2.0 6.0 0.00 0.03 0.00 74 1004.2
20260506080503 70 167 1.0 6.0 0.00 0.03 0.00 74 1004.2
20260506080404 70 166 2.0 6.0 0.00 0.03 0.00 74 1004.2
20260506080303 70 168 2.0 6.0 0.00 0.03 0.00 74 1004.4
20260506080203 70 169 1.0 6.0 0.00 0.03 0.00 73 1004.4
20260506073503 70 146 2.0 8.0 0.00 0.03 0.00 72 1004.2
20260506073318 70 143 2.0 8.0 0.00 0.03 0.00 72 1004.3
20260506073304 70 145 2.0 8.0 0.00 0.03 0.00 72 1004.3
20260506073203 70 148 2.0 8.0 0.00 0.03 0.00 72 1004.5
20260506073003 70 146 2.0 8.0 0.00 0.03 0.00 73 1004.5
20260506072904 70 146 2.0 8.0 0.00 0.03 0.00 72 1004.5
20260506072804 70 149 2.0 8.0 0.00 0.03 0.00 72 1004.5
20260506072704 70 150 2.0 6.0 0.00 0.03 0.00 73 1004.5
20260506072604 70 150 2.0 4.0 0.00 0.03 0.00 72 1004.5
20260506072503 70 144 2.0 4.0 0.00 0.03 0.00 72 1004.5
20260506072403 70 142 2.0 4.0 0.00 0.03 0.00 72 1004.4
20260506072318 70 150 2.0 4.0 0.00 0.03 0.00 72 1004.4
20260506072305 70 153 2.0 6.0 0.00 0.03 0.00 72 1004.4
20260506072203 70 158 2.0 6.0 0.00 0.03 0.00 72 1004.5
20260506072004 70 150 2.0 6.0 0.00 0.03 0.00 72 1004.4
20260506071903 70 152 2.0 6.0 0.00 0.03 0.00 72 1004.5
20260506071804 70 140 2.0 6.0 0.00 0.03 0.00 72 1004.5
20260506071703 70 130 1.0 6.0 0.00 0.03 0.00 72 1004.5
20260506071604 70 121 2.0 6.0 0.00 0.03 0.00 72 1004.4
20260506071517 70 122 2.0 6.0 0.00 0.03 0.00 72 1004.4
20260506071503 70 124 2.0 6.0 0.00 0.03 0.00 72 1004.4
20260506071403 70 150 1.0 6.0 0.00 0.03 0.00 72 1004.4
20260506071318 70 143 1.0 6.0 0.00 0.03 0.00 72 1004.4
20260506071204 70 140 1.0 4.0 0.00 0.03 0.00 72 1004.2
20260506071018 70 163 1.0 4.0 0.00 0.03 0.00 72 1004.2
20260506071003 70 160 1.0 4.0 0.00 0.03 0.00 72 1004.2
20260506070916 70 151 1.0 4.0 0.00 0.03 0.00 72 1004.1
20260506070903 71 156 1.0 4.0 0.00 0.03 0.00 72 1004.1
20260506070817 70 163 1.0 4.0 0.00 0.03 0.00 72 1004.1
20260506070718 70 169 1.0 4.0 0.00 0.03 0.00 72 1004.2
20260506070403 71 155 1.0 10.0 0.00 0.03 0.00 71 1004.2
20260506070303 71 137 2.0 10.0 0.00 0.03 0.00 71 1004.2
20260506070203 71 134 2.0 10.0 0.00 0.03 0.00 71 1004.2
20260506070103 70 140 2.0 10.0 0.00 0.03 0.00 71 1004.2
20260506062505 70 192 1.0 4.0 0.00 0.03 0.00 70 1004.8
20260506062305 71 191 1.0 4.0 0.00 0.03 0.00 70 1004.8
20260506062203 71 193 1.0 4.0 0.00 0.03 0.00 70 1004.9
20260506062104 70 195 1.0 4.0 0.00 0.03 0.00 70 1004.9
20260506062004 70 194 1.0 4.0 0.00 0.03 0.00 70 1004.8
20260506061903 70 198 1.0 4.0 0.00 0.03 0.00 70 1004.8
20260506061803 71 202 1.0 4.0 0.00 0.03 0.00 70 1004.8
20260506061703 70 202 1.0 4.0 0.00 0.03 0.00 70 1004.9
20260506061603 70 197 1.0 4.0 0.00 0.03 0.00 70 1004.9
20260506061504 71 190 1.0 4.0 0.00 0.03 0.00 70 1004.9
20260506061403 70 192 1.0 4.0 0.00 0.03 0.00 70 1005.0
20260506061304 70 195 1.0 4.0 0.00 0.03 0.00 70 1005.0
20260506061203 70 196 1.0 4.0 0.00 0.03 0.00 70 1005.1
20260506061104 70 188 2.0 7.0 0.00 0.03 0.00 70 1005.1
20260506061003 70 194 1.0 7.0 0.00 0.03 0.00 70 1005.0
20260506060903 70 193 2.0 7.0 0.00 0.03 0.00 70 1005.0
20260506060804 70 183 2.0 7.0 0.00 0.03 0.00 70 1005.0
20260506060717 70 189 2.0 7.0 0.00 0.03 0.00 70 1005.2
20260506060703 70 190 2.0 7.0 0.00 0.03 0.00 70 1005.2
20260506060604 70 193 2.0 7.0 0.00 0.03 0.00 70 1005.2
20260506060403 70 198 2.0 9.0 0.00 0.03 0.00 70 1005.2
20260506060303 70 190 2.0 9.0 0.00 0.03 0.00 70 1005.2
20260506060204 70 181 2.0 9.0 0.00 0.03 0.00 70 1005.1
20260506060104 70 175 2.0 9.0 0.00 0.03 0.00 70 1005.1
20260506051403 70 197 2.0 7.0 0.00 0.03 0.00 70 1005.8
20260506051303 70 197 2.0 8.0 0.00 0.03 0.00 70 1005.6
20260506051204 70 201 2.0 8.0 0.00 0.03 0.00 70 1005.6
20260506051103 70 207 2.0 8.0 0.00 0.03 0.00 70 1005.7
20260506051004 70 201 2.0 8.0 0.00 0.03 0.00 69 1005.7
20260506050903 70 196 2.0 8.0 0.00 0.03 0.00 70 1005.7
20260506050818 70 192 2.0 8.0 0.00 0.03 0.00 70 1005.6
20260506050804 70 191 2.0 8.0 0.00 0.03 0.00 70 1005.6
20260506050703 70 189 2.0 8.0 0.00 0.03 0.00 70 1005.6
20260506050620 70 187 2.0 8.0 0.00 0.03 0.00 70 1005.6
20260506050504 70 183 2.0 8.0 0.00 0.03 0.00 70 1005.7
20260506050303 70 197 2.0 6.0 0.00 0.03 0.00 70 1005.8
20260506050204 70 197 2.0 6.0 0.00 0.03 0.00 70 1005.8
20260506050103 70 203 1.0 6.0 0.00 0.03 0.00 70 1005.8
20260506045103 70 164 2.0 6.0 0.00 0.03 0.03 70 1005.8
20260506045003 70 156 2.0 6.0 0.00 0.03 0.03 70 1005.8
20260506044904 70 155 2.0 7.0 0.00 0.03 0.03 70 1005.9
20260506044804 70 152 2.0 7.0 0.00 0.03 0.03 70 1005.9
20260506044704 70 150 2.0 7.0 0.00 0.03 0.03 70 1005.9
20260506044604 70 153 2.0 7.0 0.00 0.03 0.03 71 1006.0
20260506044503 70 149 1.0 7.0 0.00 0.03 0.03 70 1006.0
20260506044404 70 152 1.0 7.0 0.00 0.03 0.03 70 1006.0
20260506044303 70 157 2.0 7.0 0.00 0.03 0.03 70 1006.0
20260506044203 70 162 2.0 8.0 0.00 0.03 0.03 70 1006.0
20260506044104 70 161 2.0 9.0 0.00 0.03 0.03 70 1005.9
20260506043903 70 171 2.0 9.0 0.00 0.03 0.03 70 1006.0
20260506043818 70 180 2.0 9.0 0.00 0.03 0.03 70 1005.9
20260506043803 70 181 2.0 9.0 0.00 0.03 0.03 70 1005.9
20260506043518 70 190 2.0 9.0 0.00 0.03 0.03 70 1005.9
20260506043503 70 191 2.0 9.0 0.00 0.03 0.03 70 1005.9
20260506043404 70 200 2.0 9.0 0.00 0.03 0.03 70 1005.8
20260506043218 70 214 1.0 9.0 0.00 0.03 0.03 71 1006.0
20260506043204 70 219 1.0 9.0 0.00 0.03 0.03 71 1006.0
20260506043103 70 216 1.0 4.0 0.00 0.03 0.03 71 1006.1
20260506042904 70 204 1.0 4.0 0.00 0.03 0.03 71 1006.1
20260506042804 70 195 1.0 4.0 0.00 0.03 0.03 71 1006.0
20260506042703 70 199 1.0 4.0 0.00 0.03 0.03 71 1006.0
20260506042619 70 210 1.0 4.0 0.00 0.03 0.03 71 1006.0
20260506042603 70 209 1.0 4.0 0.00 0.03 0.03 71 1006.0
20260506042503 70 203 1.0 4.0 0.00 0.03 0.03 71 1005.9
20260506042319 70 208 1.0 4.0 0.00 0.03 0.03 71 1006.1
20260506042305 70 211 1.0 4.0 0.00 0.03 0.03 71 1006.1
20260506042203 70 212 1.0 4.0 0.00 0.03 0.03 71 1006.1
20260506042004 70 216 1.0 3.0 0.00 0.03 0.03 71 1005.8
20260506041904 70 247 1.0 3.0 0.00 0.03 0.03 71 1005.8
20260506041804 69 221 1.0 4.0 0.00 0.03 0.03 71 1006.0
20260506041704 69 210 1.0 4.0 0.00 0.03 0.03 71 1006.0
20260506041603 69 198 1.0 4.0 0.00 0.03 0.03 71 1006.0
20260506041518 69 203 1.0 4.0 0.00 0.03 0.03 71 1006.1
20260506041503 69 201 1.0 4.0 0.00 0.03 0.03 71 1006.1
20260506041404 69 195 1.0 4.0 0.00 0.03 0.03 71 1006.1
20260506041204 69 180 1.0 4.0 0.00 0.03 0.03 71 1006.1
20260506041104 69 179 2.0 4.0 0.00 0.03 0.03 71 1006.1
20260506041003 69 180 2.0 8.0 0.00 0.03 0.03 71 1006.1
20260506040917 69 178 2.0 8.0 0.00 0.03 0.03 71 1006.1
20260506040903 69 179 2.0 8.0 0.00 0.03 0.03 71 1006.1
20260506040803 69 181 2.0 8.0 0.00 0.03 0.03 71 1006.3
20260506040603 69 186 1.0 8.0 0.00 0.03 0.03 72 1006.2
20260506040504 69 186 1.0 8.0 0.00 0.03 0.03 72 1006.3
20260506040403 69 187 1.0 8.0 0.00 0.03 0.03 72 1006.3
20260506040303 69 189 1.0 8.0 0.00 0.03 0.03 72 1006.3
20260506040203 69 199 2.0 10.0 0.00 0.03 0.03 72 1006.3
20260506040005 69 212 1.0 10.0 0.00 0.03 0.03 72 1006.4
20260506035903 69 217 1.0 10.0 0.00 0.03 0.03 72 1006.3
20260506035703 69 193 1.0 10.0 0.00 0.03 0.03 72 1006.4
20260506035617 69 189 1.0 10.0 0.00 0.03 0.03 72 1006.4
20260506035604 69 187 1.0 10.0 0.00 0.03 0.03 72 1006.4
20260506035504 69 178 1.0 10.0 0.00 0.03 0.03 72 1006.3
20260506035305 69 178 1.0 10.0 0.00 0.03 0.03 72 1006.2
20260506035203 69 168 1.0 6.0 0.00 0.03 0.03 73 1006.3
20260506035118 69 160 1.0 6.0 0.00 0.03 0.03 73 1006.3
20260506035104 69 161 1.0 6.0 0.00 0.03 0.03 73 1006.3
20260506035003 69 164 1.0 6.0 0.00 0.03 0.03 73 1006.3
20260506034703 69 179 1.0 6.0 0.00 0.03 0.03 72 1006.4
20260506034603 69 181 1.0 6.0 0.00 0.03 0.03 73 1006.4
20260506034503 69 182 1.0 6.0 0.00 0.03 0.03 73 1006.3
20260506034403 69 172 1.0 4.0 0.00 0.03 0.03 73 1006.3
20260506034303 69 179 1.0 4.0 0.00 0.03 0.03 73 1006.3
20260506034203 69 176 1.0 4.0 0.00 0.03 0.03 73 1006.4
20260506034103 69 178 1.0 4.0 0.00 0.03 0.03 73 1006.4
20260506034003 69 178 1.0 4.0 0.00 0.03 0.03 73 1006.4
20260506033903 69 178 1.0 4.0 0.00 0.03 0.03 73 1006.4
20260506033803 69 180 1.0 4.0 0.00 0.03 0.03 73 1006.4
20260506033703 69 180 1.0 4.0 0.00 0.03 0.03 73 1006.4
20260506033604 69 180 1.0 4.0 0.00 0.03 0.03 73 1006.4
20260506033503 68 180 1.0 4.0 0.00 0.03 0.03 73 1006.4
20260506033404 68 178 1.0 4.0 0.00 0.03 0.03 73 1006.4
20260506033220 68 176 2.0 4.0 0.00 0.03 0.03 74 1006.4
20260506033203 68 177 2.0 4.0 0.00 0.03 0.03 74 1006.4
20260506033103 68 184 2.0 4.0 0.00 0.03 0.03 74 1006.4
20260506032903 68 203 2.0 4.0 0.00 0.03 0.03 74 1006.4
20260506032803 68 206 2.0 4.0 0.00 0.03 0.03 74 1006.4
20260506032703 68 242 2.0 5.0 0.00 0.03 0.03 74 1006.4
20260506032603 68 274 2.0 5.0 0.00 0.03 0.03 73 1006.4
20260506032503 68 284 2.0 5.0 0.00 0.03 0.03 74 1006.4
20260506032403 68 288 2.0 5.0 0.00 0.03 0.03 74 1006.4
20260506032317 68 276 2.0 5.0 0.00 0.03 0.03 74 1006.4
20260506032305 68 279 2.0 5.0 0.00 0.03 0.03 74 1006.5
20260506032203 68 265 1.0 5.0 0.00 0.03 0.03 74 1006.5
20260506032118 68 250 1.0 5.0 0.00 0.03 0.03 74 1006.5
20260506032017 68 226 1.0 5.0 0.00 0.03 0.03 74 1006.5
20260506032004 68 219 1.0 5.0 0.00 0.03 0.03 74 1006.5
20260506031917 68 208 1.0 5.0 0.00 0.03 0.03 74 1006.4
20260506031818 68 194 1.0 5.0 0.00 0.03 0.03 74 1006.4
20260506031619 68 179 1.0 4.0 0.00 0.03 0.03 75 1006.4
20260506031517 68 175 1.0 4.0 0.00 0.03 0.03 75 1006.4
20260506031503 68 165 1.0 4.0 0.00 0.03 0.03 75 1006.4
20260506031317 68 151 1.0 4.0 0.00 0.03 0.03 75 1006.4
20260506031204 67 149 1.0 4.0 0.00 0.03 0.03 76 1006.4
20260506031004 67 142 1.0 4.0 0.00 0.03 0.03 76 1006.5
20260506030903 67 135 1.0 4.0 0.00 0.03 0.03 76 1006.5
20260506030804 67 129 1.0 5.0 0.00 0.03 0.03 76 1006.5
20260506030704 67 142 2.0 5.0 0.00 0.03 0.03 76 1006.5
20260506030503 67 164 2.0 5.0 0.00 0.03 0.03 77 1006.6
20260506030403 67 165 2.0 5.0 0.00 0.03 0.03 77 1006.6
20260506030304 67 163 1.0 5.0 0.00 0.03 0.03 77 1006.6
20260506030204 67 162 1.0 5.0 0.00 0.03 0.03 77 1006.6
20260506030103 67 161 1.0 5.0 0.00 0.03 0.03 77 1006.7
20260506030003 67 160 1.0 5.0 0.00 0.03 0.03 77 1006.6
20260506025917 67 163 1.0 5.0 0.00 0.03 0.03 77 1006.6
20260506025904 67 168 1.0 5.0 0.00 0.03 0.03 77 1006.6
20260506025803 66 179 1.0 4.0 0.00 0.03 0.03 77 1006.4
20260506025603 66 169 1.0 4.0 0.00 0.03 0.03 78 1006.6
20260506025503 66 178 1.0 4.0 0.00 0.03 0.03 78 1006.6
20260506025418 66 186 1.0 4.0 0.00 0.03 0.03 79 1006.6
20260506025403 66 184 1.0 4.0 0.00 0.03 0.03 79 1006.6
20260506025316 66 189 1.0 4.0 0.00 0.03 0.03 79 1006.5
20260506025305 66 188 1.0 4.0 0.00 0.03 0.03 79 1006.5
20260506025219 66 179 1.0 4.0 0.00 0.03 0.03 79 1006.5
20260506024903 66 165 1.0 3.0 0.01 0.03 0.03 79 1006.3
20260506024804 66 160 1.0 3.0 0.01 0.03 0.03 79 1006.4
20260506024704 66 154 1.0 3.0 0.01 0.03 0.03 79 1006.4
20260506024603 66 153 1.0 3.0 0.01 0.03 0.03 79 1006.4
20260506024503 66 150 1.0 3.0 0.01 0.03 0.03 80 1006.5
20260506024403 66 153 1.0 5.0 0.01 0.03 0.03 80 1006.5
20260506024304 66 157 1.0 5.0 0.01 0.03 0.03 80 1006.5
20260506024203 65 169 1.0 7.0 0.01 0.03 0.03 81 1006.6
20260506024104 65 177 1.0 7.0 0.01 0.03 0.03 82 1006.6
20260506024003 65 179 1.0 7.0 0.01 0.03 0.03 82 1006.6
20260506023904 65 177 1.0 7.0 0.01 0.03 0.03 82 1006.6
20260506023804 65 181 1.0 7.0 0.01 0.03 0.03 82 1006.6
20260506023704 65 177 1.0 7.0 0.01 0.03 0.03 82 1006.6
20260506023604 65 177 1.0 7.0 0.01 0.03 0.03 81 1006.6
20260506023503 65 170 1.0 7.0 0.01 0.03 0.03 81 1006.6
20260506023404 65 160 1.0 7.0 0.01 0.03 0.03 82 1006.5
20260506023318 65 141 1.0 7.0 0.01 0.03 0.03 81 1006.5
20260506023303 65 126 1.0 7.0 0.01 0.03 0.03 82 1006.5
20260506023203 65 48 1.0 4.0 0.01 0.03 0.03 82 1006.5
20260506023018 64 31 1.0 4.0 0.01 0.03 0.03 83 1006.5
20260506023003 64 32 1.0 4.0 0.01 0.03 0.03 83 1006.5
20260506022917 64 36 1.0 7.0 0.01 0.03 0.03 84 1006.5
20260506022904 64 43 1.0 7.0 0.01 0.03 0.03 84 1006.5
20260506022817 64 55 1.0 7.0 0.01 0.03 0.03 84 1006.5
20260506022504 64 89 1.0 7.0 0.01 0.03 0.03 84 1006.4
20260506022404 64 91 1.0 7.0 0.01 0.03 0.03 84 1006.5
20260506022305 64 89 1.0 7.0 0.01 0.03 0.03 83 1006.5
20260506022204 64 92 1.0 7.0 0.01 0.03 0.03 83 1006.5
20260506022117 64 100 1.0 7.0 0.01 0.03 0.03 83 1006.5
20260506022104 64 111 1.0 7.0 0.01 0.03 0.03 84 1006.5
20260506022003 64 185 1.0 7.0 0.01 0.03 0.03 85 1006.5
20260506021803 64 316 1.0 4.0 0.01 0.03 0.03 85 1006.5
20260506021704 64 317 1.0 4.0 0.01 0.03 0.03 85 1006.4
20260506021603 64 318 1.0 4.0 0.01 0.03 0.03 85 1006.4
20260506021504 64 319 1.0 4.0 0.01 0.03 0.03 86 1006.4
20260506021403 64 322 1.0 3.0 0.01 0.03 0.03 86 1006.5
20260506021304 64 321 1.0 3.0 0.01 0.03 0.03 86 1006.5
20260506021203 64 321 1.0 3.0 0.01 0.03 0.03 86 1006.5
20260506021103 64 321 1.0 3.0 0.01 0.03 0.03 86 1006.5
20260506021004 64 320 1.0 3.0 0.01 0.03 0.03 86 1006.5
20260506020903 64 320 1.0 3.0 0.01 0.03 0.03 87 1006.5
20260506020803 64 319 1.0 3.0 0.01 0.03 0.03 87 1006.5
20260506020703 64 319 1.0 3.0 0.01 0.03 0.03 87 1006.5
20260506020603 64 317 0.0 3.0 0.01 0.03 0.03 87 1006.6
20260506020503 64 316 0.0 2.0 0.01 0.03 0.03 87 1006.6
20260506020404 64 316 0.0 2.0 0.01 0.03 0.03 87 1006.5
20260506020303 64 316 0.0 2.0 0.01 0.03 0.03 87 1006.5
20260506020203 64 316 0.0 2.0 0.01 0.03 0.03 87 1006.5
20260506020103 64 316 0.0 2.0 0.01 0.03 0.03 86 1006.5
20260506020004 64 316 0.0 2.0 0.01 0.03 0.03 86 1006.5
20260506015903 64 316 0.0 2.0 0.01 0.03 0.03 86 1006.4
20260506015803 64 316 0.0 2.0 0.01 0.03 0.03 86 1006.4
20260506015703 64 316 0.0 2.0 0.02 0.03 0.03 86 1006.4
20260506015604 64 316 0.0 1.0 0.02 0.03 0.03 86 1006.4
20260506015504 64 316 0.0 1.0 0.02 0.03 0.03 87 1006.4
20260506015403 64 290 0.0 2.0 0.02 0.03 0.03 87 1006.6
20260506015305 64 253 0.0 3.0 0.02 0.03 0.03 87 1006.5
20260506015203 63 241 0.0 3.0 0.02 0.03 0.03 87 1006.5
20260506015103 63 234 0.0 3.0 0.02 0.03 0.03 87 1006.5
20260506015003 63 230 0.0 3.0 0.01 0.02 0.02 88 1006.5
20260506014904 63 226 0.0 3.0 0.02 0.02 0.02 87 1006.6
20260506014803 63 224 0.0 3.0 0.02 0.02 0.02 87 1006.6
20260506014703 63 223 0.0 3.0 0.02 0.02 0.02 87 1006.6
20260506014604 63 221 0.0 3.0 0.02 0.02 0.02 88 1006.6
20260506014504 63 212 0.0 3.0 0.02 0.02 0.02 88 1006.6
20260506014403 63 208 0.0 3.0 0.02 0.02 0.02 88 1006.6
20260506014304 63 208 0.0 2.0 0.02 0.02 0.02 89 1006.6
20260506014203 63 208 0.0 2.0 0.02 0.02 0.02 89 1006.6
20260506014003 63 208 0.0 2.0 0.02 0.02 0.02 90 1006.7
20260506013904 63 208 0.0 2.0 0.02 0.02 0.02 90 1006.7
20260506013803 63 208 0.0 2.0 0.02 0.02 0.02 90 1006.8
20260506013703 63 208 0.0 2.0 0.02 0.02 0.02 90 1006.8
20260506013504 63 208 0.0 2.0 0.02 0.02 0.02 91 1006.7
20260506013403 63 208 0.0 2.0 0.02 0.02 0.02 91 1006.7
20260506013303 63 208 0.0 2.0 0.02 0.02 0.02 90 1006.7
20260506013204 63 208 0.0 2.0 0.02 0.02 0.02 90 1006.7
20260506013104 63 208 0.0 2.0 0.02 0.02 0.02 90 1006.8
20260506013003 63 208 0.0 2.0 0.02 0.02 0.02 90 1006.8
20260506012904 63 208 0.0 2.0 0.02 0.02 0.02 89 1006.8
20260506012803 63 208 0.0 2.0 0.02 0.02 0.02 89 1006.8
20260506012704 63 208 0.0 2.0 0.02 0.02 0.02 89 1006.8
20260506012603 63 208 0.0 2.0 0.02 0.02 0.02 89 1006.8
20260506012504 63 208 0.0 2.0 0.02 0.02 0.02 89 1006.9
20260506012403 63 208 0.0 2.0 0.02 0.02 0.02 89 1006.9
20260506012307 63 208 0.0 2.0 0.02 0.02 0.02 89 1006.8
20260506012203 63 208 0.0 2.0 0.02 0.02 0.02 89 1006.8
20260506012103 63 208 1.0 2.0 0.02 0.02 0.02 88 1006.8
20260506012003 63 208 1.0 2.0 0.02 0.02 0.02 88 1006.8
20260506011803 63 208 1.0 2.0 0.02 0.02 0.02 88 1006.8
20260506011704 63 208 1.0 2.0 0.02 0.02 0.02 88 1006.7
20260506011604 63 208 1.0 2.0 0.02 0.02 0.02 88 1006.7
20260506011504 63 208 1.0 2.0 0.02 0.02 0.02 88 1006.8
20260506011419 63 208 1.0 2.0 0.02 0.02 0.02 88 1006.8
20260506011303 63 208 1.0 2.0 0.02 0.02 0.02 87 1006.8
20260506011104 63 208 0.0 2.0 0.02 0.02 0.02 87 1006.8
20260506011004 63 208 0.0 2.0 0.02 0.02 0.02 87 1006.9
20260506010903 63 208 0.0 2.0 0.02 0.02 0.02 87 1006.9
20260506010808 63 208 0.0 2.0 0.02 0.02 0.02 87 1006.9
20260506010703 63 208 0.0 2.0 0.02 0.02 0.02 87 1006.9
20260506010604 64 208 0.0 2.0 0.02 0.02 0.02 86 1006.9
20260506010503 64 208 0.0 2.0 0.02 0.02 0.02 85 1006.9
20260506010417 64 208 0.0 2.0 0.02 0.02 0.02 85 1006.9
20260506010403 64 208 0.0 2.0 0.02 0.02 0.02 85 1006.8
20260506010303 64 208 0.0 2.0 0.02 0.02 0.02 85 1006.8
20260506010218 64 208 0.0 2.0 0.02 0.02 0.02 84 1006.9
20260506010103 64 208 0.0 2.0 0.02 0.02 0.02 84 1006.9
20260506010018 64 208 0.0 2.0 0.02 0.02 0.02 83 1006.9
20260506005904 65 208 0.0 2.0 0.02 0.02 0.02 82 1007.0
20260506005703 65 208 0.0 2.0 0.01 0.01 0.01 81 1006.9
20260506005604 65 208 0.0 2.0 0.01 0.01 0.01 81 1006.9
20260506005503 65 208 0.0 2.0 0.01 0.01 0.01 80 1006.9
20260506005417 66 208 0.0 2.0 0.01 0.01 0.01 80 1006.8
20260506005318 66 208 0.0 2.0 0.01 0.01 0.01 79 1006.8
20260506005305 66 208 0.0 2.0 0.01 0.01 0.01 78 1006.8
20260506005004 66 208 1.0 3.0 0.01 0.01 0.01 77 1006.8
20260506004903 66 208 1.0 3.0 0.00 0.00 0.00 76 1007.0
20260506004803 66 215 1.0 4.0 0.00 0.00 0.00 76 1007.0
20260506004719 67 220 1.0 4.0 0.00 0.00 0.00 76 1006.9
20260506004603 67 229 1.0 4.0 0.00 0.00 0.00 74 1007.0
20260506004419 67 255 1.0 4.0 0.00 0.00 0.00 73 1006.8
20260506004403 68 262 1.0 4.0 0.00 0.00 0.00 73 1006.8
20260506004304 68 287 1.0 4.0 0.00 0.00 0.00 72 1006.8
20260506004103 68 334 1.0 4.0 0.00 0.00 0.00 70 1006.7
20260506004003 68 343 1.0 4.0 0.00 0.00 0.00 69 1006.7
20260506003903 69 348 1.0 4.0 0.00 0.00 0.00 69 1006.7
20260506003803 69 359 1.0 3.0 0.00 0.00 0.00 68 1006.6
20260506003704 69 358 1.0 3.0 0.00 0.00 0.00 67 1006.6
20260506003618 69 357 1.0 4.0 0.00 0.00 0.00 67 1006.5
20260506003603 69 355 1.0 5.0 0.00 0.00 0.00 67 1006.5
20260506003503 69 354 1.0 5.0 0.00 0.00 0.00 67 1006.5
20260506003304 69 352 1.0 5.0 0.00 0.00 0.00 66 1006.4
20260506003203 68 353 1.0 5.0 0.00 0.00 0.00 65 1006.4
20260506003104 68 352 1.0 5.0 0.00 0.00 0.00 67 1006.4
20260506003003 68 350 1.0 5.0 0.00 0.00 0.00 68 1006.4
20260506002903 68 351 1.0 5.0 0.00 0.00 0.00 68 1006.3
20260506002703 68 351 1.0 5.0 0.00 0.00 0.00 66 1006.3
20260506002603 68 333 1.0 4.0 0.00 0.00 0.00 68 1006.3
20260506002504 68 256 1.0 4.0 0.00 0.00 0.00 68 1006.3
20260506002404 68 240 1.0 4.0 0.00 0.00 0.00 68 1006.4
20260506002305 68 216 1.0 3.0 0.00 0.00 0.00 68 1006.4
20260506002203 68 219 1.0 3.0 0.00 0.00 0.00 68 1006.4
20260506002104 68 220 1.0 3.0 0.00 0.00 0.00 69 1006.5
20260506002004 68 222 1.0 3.0 0.00 0.00 0.00 69 1006.4
20260506001918 68 232 1.0 3.0 0.00 0.00 0.00 69 1006.4
20260506001904 68 240 1.0 3.0 0.00 0.00 0.00 69 1006.4
20260506001804 68 248 1.0 3.0 0.00 0.00 0.00 67 1006.3
20260506001719 68 250 1.0 3.0 0.00 0.00 0.00 68 1006.3
20260506001604 68 249 0.0 3.0 0.00 0.00 0.00 68 1006.3
20260506001403 68 249 0.0 3.0 0.00 0.00 0.00 67 1006.3
20260506001303 68 246 0.0 3.0 0.00 0.00 0.00 68 1006.3
20260506001204 68 245 0.0 3.0 0.00 0.00 0.00 68 1006.3
20260506001103 68 242 0.0 3.0 0.00 0.00 0.00 68 1006.3
20260506001003 68 242 0.0 3.0 0.00 0.00 0.00 66 1006.3
20260506000904 68 226 0.0 2.0 0.00 0.00 0.00 68 1006.3
20260506000803 68 226 0.0 2.0 0.00 0.00 0.00 68 1006.3
20260506000704 68 226 0.0 2.0 0.00 0.00 0.00 69 1006.3
20260506000603 68 226 0.0 2.0 0.00 0.00 0.00 68 1006.3
20260506000503 68 226 0.0 2.0 0.00 0.00 0.00 69 1006.3
20260506000403 68 226 0.0 2.0 0.00 0.00 0.00 69 1006.3
20260506000304 68 226 0.0 2.0 0.00 0.00 0.00 69 1006.3
20260506000205 68 226 0.0 2.0 0.00 0.00 0.00 69 1006.4
20260506000104 68 226 0.0 2.0 0.00 0.00 0.00 69 1006.4
20260506000003 68 227 0.0 2.0 0.00 0.00 0.00 69 1006.3
20260505235918 68 229 0.0 3.0 0.00 0.00 0.00 68 1006.3
20260505235818 68 236 0.0 3.0 0.00 0.00 0.00 68 1006.3
20260505235803 68 237 0.0 3.0 0.00 0.00 0.00 68 1006.3
20260505235503 69 264 0.0 3.0 0.00 0.00 0.00 67 1006.3
20260505235403 69 270 0.0 3.0 0.00 0.00 0.00 67 1006.3
20260505235305 69 280 0.0 3.0 0.00 0.00 0.00 65 1006.3
20260505235204 69 280 0.0 3.0 0.00 0.00 0.00 64 1006.3
20260505235104 70 282 0.0 3.0 0.00 0.00 0.00 64 1006.3
20260505235003 70 295 0.0 3.0 0.00 0.00 0.00 64 1006.3
20260505234918 70 310 0.0 4.0 0.00 0.00 0.00 63 1006.3
20260505234903 70 315 0.0 4.0 0.00 0.00 0.00 62 1006.3
20260505234803 70 315 0.0 4.0 0.00 0.00 0.00 61 1006.3
20260505234603 70 290 0.0 4.0 0.00 0.00 0.00 61 1006.4
20260505234503 70 183 1.0 4.0 0.00 0.00 0.00 61 1006.4
20260505234404 70 146 1.0 4.0 0.00 0.00 0.00 61 1006.4
20260505234304 70 139 1.0 4.0 0.00 0.00 0.00 61 1006.4
20260505234218 70 133 1.0 4.0 0.00 0.00 0.00 61 1006.4
20260505234204 70 132 1.0 4.0 0.00 0.00 0.00 61 1006.4
20260505234104 70 125 1.0 4.0 0.00 0.00 0.00 60 1006.4
20260505233903 70 126 1.0 3.0 0.00 0.00 0.00 61 1006.4
20260505233804 70 118 1.0 3.0 0.00 0.00 0.00 60 1006.4
20260505233704 70 98 1.0 3.0 0.00 0.00 0.00 60 1006.4
20260505233603 70 93 1.0 3.0 0.00 0.00 0.00 61 1006.4
20260505233503 70 81 1.0 3.0 0.00 0.00 0.00 61 1006.4
20260505233404 70 75 1.0 3.0 0.00 0.00 0.00 61 1006.4
20260505233303 70 71 0.0 3.0 0.00 0.00 0.00 62 1006.4
20260505233204 70 67 0.0 3.0 0.00 0.00 0.00 63 1006.4
20260505233103 70 55 0.0 3.0 0.00 0.00 0.00 63 1006.5
20260505233004 70 48 0.0 3.0 0.00 0.00 0.00 64 1006.5
20260505232903 70 46 0.0 3.0 0.00 0.00 0.00 63 1006.5
20260505232803 70 33 0.0 3.0 0.00 0.00 0.00 62 1006.5
20260505232704 70 33 0.0 2.0 0.00 0.00 0.00 63 1006.6
20260505232603 70 33 0.0 2.0 0.00 0.00 0.00 62 1006.7
20260505232504 70 33 0.0 2.0 0.00 0.00 0.00 62 1006.7
20260505232404 70 33 0.0 1.0 0.00 0.00 0.00 63 1006.8
20260505232305 70 33 0.0 1.0 0.00 0.00 0.00 63 1006.8
20260505232203 70 33 0.0 1.0 0.00 0.00 0.00 63 1006.9
20260505232103 70 33 0.0 1.0 0.00 0.00 0.00 63 1006.8
20260505232017 70 33 0.0 1.0 0.00 0.00 0.00 63 1006.8
20260505232004 70 33 0.0 1.0 0.00 0.00 0.00 62 1006.8
20260505231903 70 33 0.0 2.0 0.00 0.00 0.00 63 1006.8
20260505231704 70 33 0.0 2.0 0.00 0.00 0.00 63 1006.9
20260505231603 70 33 0.0 2.0 0.00 0.00 0.00 63 1006.9
20260505231503 70 33 0.0 2.0 0.00 0.00 0.00 62 1006.9
20260505231303 70 33 0.0 2.0 0.00 0.00 0.00 63 1007.0
20260505231203 70 33 0.0 2.0 0.00 0.00 0.00 61 1007.0
20260505231103 70 33 0.0 2.0 0.00 0.00 0.00 61 1007.1
20260505231003 70 33 0.0 2.0 0.00 0.00 0.00 62 1007.1
20260505230903 70 33 0.0 2.0 0.00 0.00 0.00 62 1007.1
20260505230804 70 33 0.0 2.0 0.00 0.00 0.00 64 1007.1
20260505230704 70 33 0.0 2.0 0.00 0.00 0.00 62 1007.1
20260505230603 70 33 0.0 2.0 0.00 0.00 0.00 63 1007.2
20260505230403 70 33 0.0 2.0 0.00 0.00 0.00 62 1007.1
20260505230303 70 33 0.0 2.0 0.00 0.00 0.00 60 1007.1
20260505230203 70 33 0.0 2.0 0.00 0.00 0.00 62 1007.1
20260505230003 70 36 0.0 3.0 0.00 0.00 0.00 62 1007.2
20260505225903 70 41 0.0 3.0 0.00 0.00 0.00 61 1007.2
20260505225804 70 54 0.0 3.0 0.00 0.00 0.00 60 1007.3
20260505225703 70 54 0.0 3.0 0.00 0.00 0.00 61 1007.3
20260505225603 70 59 0.0 3.0 0.00 0.00 0.00 60 1007.3
20260505225503 70 66 0.0 3.0 0.00 0.00 0.00 60 1007.3
20260505225419 70 75 1.0 4.0 0.00 0.00 0.00 62 1007.3
20260505225404 70 50 1.0 9.0 0.00 0.00 0.00 62 1007.3
20260505225306 70 59 1.0 9.0 0.00 0.00 0.00 61 1007.3
20260505225103 71 58 1.0 9.0 0.00 0.00 0.00 62 1007.1
20260505225004 71 75 1.0 9.0 0.00 0.00 0.00 61 1007.1
20260505224904 71 318 1.0 9.0 0.00 0.00 0.00 62 1007.1
20260505224803 71 306 1.0 9.0 0.00 0.00 0.00 61 1007.0
20260505224704 71 317 1.0 9.0 0.00 0.00 0.00 61 1007.0
20260505224603 71 324 1.0 9.0 0.00 0.00 0.00 60 1006.8
20260505224503 71 323 1.0 9.0 0.00 0.00 0.00 59 1006.9
20260505224404 71 306 1.0 5.0 0.00 0.00 0.00 59 1006.9
20260505224319 71 268 1.0 5.0 0.00 0.00 0.00 60 1006.8
20260505224303 71 273 1.0 5.0 0.00 0.00 0.00 60 1006.8
20260505224204 71 245 1.0 5.0 0.00 0.00 0.00 60 1006.8
20260505224003 71 229 2.0 9.0 0.00 0.00 0.00 60 1006.8
20260505223903 71 232 2.0 9.0 0.00 0.00 0.00 59 1006.8
20260505223803 71 216 2.0 9.0 0.00 0.00 0.00 59 1006.8
20260505223703 71 205 2.0 9.0 0.00 0.00 0.00 60 1006.7
20260505223617 71 208 2.0 9.0 0.00 0.00 0.00 59 1006.7
20260505223603 71 207 2.0 9.0 0.00 0.00 0.00 59 1006.7
20260505223503 71 204 2.0 9.0 0.00 0.00 0.00 58 1006.6
20260505223304 71 199 2.0 9.0 0.00 0.00 0.00 59 1006.3
20260505223203 71 219 2.0 9.0 0.00 0.00 0.00 58 1006.2
20260505223103 71 228 2.0 6.0 0.00 0.00 0.00 58 1006.2
20260505223003 71 222 1.0 6.0 0.00 0.00 0.00 58 1006.2
20260505222903 72 208 1.0 6.0 0.00 0.00 0.00 58 1006.2
20260505222804 72 197 1.0 6.0 0.00 0.00 0.00 57 1006.4
20260505222703 72 205 1.0 6.0 0.00 0.00 0.00 58 1006.4
20260505222603 72 192 1.0 6.0 0.00 0.00 0.00 57 1006.4
20260505222504 72 182 1.0 6.0 0.00 0.00 0.00 57 1006.8
20260505222403 72 170 1.0 6.0 0.00 0.00 0.00 57 1007.1
20260505222305 72 161 1.0 6.0 0.00 0.00 0.00 55 1007.1
20260505222204 72 158 1.0 3.0 0.00 0.00 0.00 55 1007.2
20260505222104 73 153 1.0 3.0 0.00 0.00 0.00 55 1007.2
20260505222016 73 150 1.0 3.0 0.00 0.00 0.00 56 1007.4
20260505222003 73 149 1.0 3.0 0.00 0.00 0.00 56 1007.4
20260505221903 73 150 1.0 3.0 0.00 0.00 0.00 56 1007.5
20260505221704 73 150 2.0 6.0 0.00 0.00 0.00 54 1007.7
20260505221617 73 153 2.0 6.0 0.00 0.00 0.00 53 1007.7
20260505221604 73 154 2.0 6.0 0.00 0.00 0.00 53 1007.7
20260505221503 73 156 2.0 6.0 0.00 0.00 0.00 53 1007.9
20260505221319 73 161 2.0 6.0 0.00 0.00 0.00 54 1007.9
20260505221303 73 162 2.0 6.0 0.00 0.00 0.00 54 1007.9
20260505221204 73 166 2.0 6.0 0.00 0.00 0.00 54 1008.0
20260505221003 74 168 2.0 6.0 0.00 0.00 0.00 51 1008.0
20260505220903 74 169 2.0 6.0 0.00 0.00 0.00 50 1008.0
20260505220803 74 170 2.0 6.0 0.00 0.00 0.00 50 1008.0
20260505220704 74 170 2.0 6.0 0.00 0.00 0.00 51 1008.0
20260505220604 74 166 2.0 6.0 0.00 0.00 0.00 51 1007.9
20260505220503 74 160 2.0 6.0 0.00 0.00 0.00 51 1007.9
20260505220404 74 159 2.0 6.0 0.00 0.00 0.00 50 1008.0
20260505220303 74 164 2.0 6.0 0.00 0.00 0.00 51 1008.0
20260505220204 74 169 2.0 6.0 0.00 0.00 0.00 51 1007.9
20260505220104 74 171 2.0 6.0 0.00 0.00 0.00 49 1007.9
20260505220004 74 175 2.0 6.0 0.00 0.00 0.00 50 1007.9
20260505215904 74 182 1.0 6.0 0.00 0.00 0.00 49 1007.8
20260505215803 74 180 1.0 6.0 0.00 0.00 0.00 51 1007.8
20260505215703 74 176 1.0 6.0 0.00 0.00 0.00 50 1007.8
20260505215604 74 190 1.0 6.0 0.00 0.00 0.00 50 1007.7
20260505215517 74 205 1.0 6.0 0.00 0.00 0.00 50 1007.7
20260505215503 74 209 1.0 6.0 0.00 0.00 0.00 50 1007.7
20260505215403 74 233 1.0 6.0 0.00 0.00 0.00 49 1007.5
20260505215203 74 261 1.0 5.0 0.00 0.00 0.00 50 1007.4
20260505215104 75 230 1.0 6.0 0.00 0.00 0.00 50 1007.4
20260505215004 75 214 1.0 6.0 0.00 0.00 0.00 49 1007.4
20260505214917 75 210 1.0 6.0 0.00 0.00 0.00 51 1007.3
20260505214903 75 205 1.0 6.0 0.00 0.00 0.00 51 1007.3
20260505214804 75 219 1.0 6.0 0.00 0.00 0.00 50 1007.1
20260505214718 75 229 1.0 6.0 0.00 0.00 0.00 51 1007.1
20260505214603 75 202 1.0 6.0 0.00 0.00 0.00 51 1007.3
20260505214403 75 213 1.0 6.0 0.00 0.00 0.00 51 1007.0
20260505214304 75 216 1.0 6.0 0.00 0.00 0.00 51 1007.1
20260505214203 75 200 1.0 6.0 0.00 0.00 0.00 50 1007.1
20260505214103 75 182 1.0 4.0 0.00 0.00 0.00 51 1007.1
20260505214003 75 173 1.0 4.0 0.00 0.00 0.00 50 1007.1
20260505213903 75 172 1.0 6.0 0.00 0.00 0.00 49 1007.0
20260505213804 76 177 2.0 6.0 0.00 0.00 0.00 49 1007.0
20260505213703 76 181 2.0 6.0 0.00 0.00 0.00 49 1007.0
20260505213603 76 188 2.0 6.0 0.00 0.00 0.00 50 1006.8
20260505213503 76 184 2.0 6.0 0.00 0.00 0.00 48 1006.9
20260505213418 76 185 2.0 6.0 0.00 0.00 0.00 48 1006.9
20260505213403 76 185 2.0 6.0 0.00 0.00 0.00 50 1006.9
20260505213303 76 189 2.0 6.0 0.00 0.00 0.00 49 1006.9
20260505213103 76 204 2.0 6.0 0.00 0.00 0.00 48 1006.9
20260505213004 76 204 2.0 6.0 0.00 0.00 0.00 49 1006.9
20260505212903 76 212 2.0 4.0 0.00 0.00 0.00 48 1006.9
20260505212803 76 195 2.0 4.0 0.00 0.00 0.00 47 1006.9
20260505212703 76 189 2.0 7.0 0.00 0.00 0.00 49 1006.9
20260505212617 76 189 2.0 7.0 0.00 0.00 0.00 50 1006.8
20260505212603 76 187 2.0 7.0 0.00 0.00 0.00 50 1006.8
20260505212305 76 194 2.0 7.0 0.00 0.00 0.00 49 1006.9
20260505212204 77 190 2.0 7.0 0.00 0.00 0.00 48 1006.9
20260505212104 77 199 2.0 7.0 0.00 0.00 0.00 48 1006.9
20260505212003 77 212 2.0 7.0 0.00 0.00 0.00 49 1006.9
20260505211903 77 219 2.0 7.0 0.00 0.00 0.00 48 1006.9
20260505211803 77 214 2.0 7.0 0.00 0.00 0.00 51 1006.9
20260505211703 77 211 2.0 5.0 0.00 0.00 0.00 48 1006.9
20260505211603 77 230 2.0 5.0 0.00 0.00 0.00 49 1006.9
20260505211503 77 356 2.0 5.0 0.00 0.00 0.00 49 1006.9
20260505211403 77 9 2.0 5.0 0.00 0.00 0.00 48 1006.9
20260505211303 77 51 2.0 5.0 0.00 0.00 0.00 49 1006.9
20260505211204 77 135 2.0 5.0 0.00 0.00 0.00 48 1006.9
20260505211103 77 133 2.0 5.0 0.00 0.00 0.00 48 1006.9
20260505211004 77 140 2.0 5.0 0.00 0.00 0.00 47 1007.1
20260505210917 77 147 1.0 5.0 0.00 0.00 0.00 49 1007.1
20260505210903 77 148 1.0 5.0 0.00 0.00 0.00 49 1007.1
20260505210803 77 159 2.0 4.0 0.00 0.00 0.00 49 1007.0
20260505210604 78 147 2.0 4.0 0.00 0.00 0.00 48 1006.9
20260505210503 77 163 2.0 6.0 0.00 0.00 0.00 49 1007.0
20260505210403 77 164 2.0 6.0 0.00 0.00 0.00 49 1006.9
20260505210304 77 165 2.0 6.0 0.00 0.00 0.00 49 1006.9
20260505210204 77 157 2.0 6.0 0.00 0.00 0.00 49 1006.9
20260505210103 77 151 2.0 6.0 0.00 0.00 0.00 49 1006.9
20260505210003 77 143 2.0 6.0 0.00 0.00 0.00 49 1007.0
20260505205904 77 150 2.0 6.0 0.00 0.00 0.00 48 1006.9
20260505205803 77 156 2.0 6.0 0.00 0.00 0.00 48 1006.9
20260505205703 77 158 2.0 6.0 0.00 0.00 0.00 47 1006.8
20260505205616 77 152 1.0 6.0 0.00 0.00 0.00 48 1006.8
20260505205604 77 147 1.0 6.0 0.00 0.00 0.00 48 1006.8
20260505205503 78 127 1.0 3.0 0.00 0.00 0.00 49 1006.9
20260505205305 78 92 1.0 3.0 0.00 0.00 0.00 52 1006.9
20260505205204 78 81 1.0 3.0 0.00 0.00 0.00 50 1007.0
20260505205119 78 87 1.0 3.0 0.00 0.00 0.00 49 1007.0
20260505205103 78 94 1.0 4.0 0.00 0.00 0.00 49 1007.0
20260505205018 78 98 1.0 4.0 0.00 0.00 0.00 50 1007.0
20260505205004 78 97 1.0 4.0 0.00 0.00 0.00 50 1007.0
20260505204703 77 75 2.0 4.0 0.00 0.00 0.00 50 1007.1
20260505204603 77 78 1.0 4.0 0.00 0.00 0.00 49 1007.1
20260505204504 77 89 2.0 4.0 0.00 0.00 0.00 51 1007.1
20260505204403 77 107 2.0 4.0 0.00 0.00 0.00 51 1007.3
20260505204303 77 123 2.0 4.0 0.00 0.00 0.00 50 1007.3
20260505204204 77 137 2.0 4.0 0.00 0.00 0.00 52 1007.2
20260505204104 77 147 2.0 4.0 0.00 0.00 0.00 51 1007.3
20260505204003 77 141 2.0 4.0 0.00 0.00 0.00 49 1007.3
20260505203903 77 142 2.0 4.0 0.00 0.00 0.00 50 1007.4
20260505203819 77 154 2.0 4.0 0.00 0.00 0.00 49 1007.4
20260505203803 77 157 2.0 4.0 0.00 0.00 0.00 49 1007.4
20260505203703 77 145 2.0 6.0 0.00 0.00 0.00 50 1007.4
20260505203504 77 104 2.0 6.0 0.00 0.00 0.00 50 1007.4
20260505203417 77 89 2.0 6.0 0.00 0.00 0.00 49 1007.4
20260505203403 77 87 2.0 6.0 0.00 0.00 0.00 49 1007.4
20260505203303 77 76 2.0 6.0 0.00 0.00 0.00 51 1007.4
20260505203103 77 58 2.0 6.0 0.00 0.00 0.00 51 1007.2
20260505203003 76 66 2.0 6.0 0.00 0.00 0.00 50 1007.2
20260505202903 77 71 2.0 6.0 0.00 0.00 0.00 50 1007.3
20260505202804 77 77 2.0 6.0 0.00 0.00 0.00 51 1007.3
20260505202718 77 89 2.0 6.0 0.00 0.00 0.00 50 1007.3
20260505202704 77 87 2.0 6.0 0.00 0.00 0.00 50 1007.3
20260505202603 77 112 2.0 6.0 0.00 0.00 0.00 50 1007.3
20260505202404 76 151 2.0 6.0 0.00 0.00 0.00 50 1007.4
20260505202306 76 164 2.0 7.0 0.00 0.00 0.00 51 1007.4
20260505202203 76 186 2.0 7.0 0.00 0.00 0.00 53 1007.4
20260505202103 76 193 2.0 7.0 0.00 0.00 0.00 51 1007.5
20260505202004 76 188 2.0 7.0 0.00 0.00 0.00 50 1007.5
20260505201903 76 189 2.0 7.0 0.00 0.00 0.00 49 1007.6
20260505201803 77 187 2.0 7.0 0.00 0.00 0.00 49 1007.6
20260505201703 77 166 2.0 7.0 0.00 0.00 0.00 51 1007.6
20260505201603 77 163 2.0 7.0 0.00 0.00 0.00 52 1007.6
20260505201503 77 124 2.0 7.0 0.00 0.00 0.00 53 1007.6
20260505201404 77 92 2.0 7.0 0.00 0.00 0.00 52 1007.6
20260505201303 77 84 2.0 6.0 0.00 0.00 0.00 51 1007.6
20260505201204 77 114 2.0 6.0 0.00 0.00 0.00 52 1007.6
20260505201117 77 90 2.0 5.0 0.00 0.00 0.00 52 1007.7
20260505201103 77 86 2.0 5.0 0.00 0.00 0.00 52 1007.7
20260505201004 77 78 2.0 5.0 0.00 0.00 0.00 52 1007.7
20260505200804 77 62 1.0 5.0 0.00 0.00 0.00 52 1007.9
20260505200718 77 53 2.0 5.0 0.00 0.00 0.00 53 1007.9
20260505200704 77 46 2.0 5.0 0.00 0.00 0.00 51 1007.9
20260505200604 77 36 2.0 5.0 0.00 0.00 0.00 52 1007.9
20260505200404 77 22 2.0 5.0 0.00 0.00 0.00 51 1007.9
20260505200304 77 6 2.0 5.0 0.00 0.00 0.00 51 1008.0
20260505200203 78 21 2.0 5.0 0.00 0.00 0.00 53 1008.0
20260505200104 77 21 2.0 5.0 0.00 0.00 0.00 55 1008.0
20260505200004 77 19 2.0 5.0 0.00 0.00 0.00 55 1008.0
20260505195904 77 335 2.0 5.0 0.00 0.00 0.00 56 1008.0
20260505195804 76 294 2.0 5.0 0.00 0.00 0.00 53 1007.9
20260505195703 76 254 2.0 5.0 0.00 0.00 0.00 52 1007.9
20260505195618 76 233 2.0 5.0 0.00 0.00 0.00 53 1007.9
20260505195603 76 236 2.0 5.0 0.00 0.00 0.00 53 1007.9
20260505195503 76 319 2.0 5.0 0.00 0.00 0.00 53 1007.9
20260505195305 77 1 2.0 7.0 0.00 0.00 0.00 53 1007.9
20260505195203 77 356 2.0 7.0 0.00 0.00 0.00 53 1008.0
20260505195119 77 352 2.0 7.0 0.00 0.00 0.00 52 1008.0
20260505195104 77 356 2.0 7.0 0.00 0.00 0.00 52 1008.0
20260505195018 77 358 2.0 7.0 0.00 0.00 0.00 52 1007.9
20260505195003 77 359 2.0 7.0 0.00 0.00 0.00 52 1007.9
20260505194918 77 4 2.0 7.0 0.00 0.00 0.00 54 1007.9
20260505194618 76 350 1.0 7.0 0.00 0.00 0.00 53 1008.1
20260505194604 76 345 1.0 7.0 0.00 0.00 0.00 53 1008.1
20260505194503 77 302 1.0 7.0 0.00 0.00 0.00 52 1008.2
20260505194303 77 214 1.0 3.0 0.00 0.00 0.00 54 1008.3
20260505194203 76 197 1.0 3.0 0.00 0.00 0.00 56 1008.4
20260505194103 76 193 1.0 3.0 0.00 0.00 0.00 56 1008.4
20260505194004 76 196 1.0 4.0 0.00 0.00 0.00 57 1008.4
20260505193903 75 190 1.0 4.0 0.00 0.00 0.00 58 1008.5
20260505193819 75 188 1.0 4.0 0.00 0.00 0.00 57 1008.5
20260505193803 75 187 1.0 4.0 0.00 0.00 0.00 57 1008.5
20260505193704 74 184 1.0 4.0 0.00 0.00 0.00 57 1008.5
20260505193516 74 193 2.0 7.0 0.00 0.00 0.00 55 1008.6
20260505193503 74 195 2.0 7.0 0.00 0.00 0.00 55 1008.6
20260505193404 74 199 2.0 7.0 0.00 0.00 0.00 56 1008.7
20260505193203 74 208 2.0 8.0 0.00 0.00 0.00 56 1008.7
20260505193103 74 208 2.0 8.0 0.00 0.00 0.00 55 1008.7
20260505193004 74 201 2.0 8.0 0.00 0.00 0.00 56 1008.7
20260505192903 74 208 2.0 8.0 0.00 0.00 0.00 56 1008.7
20260505192804 74 202 2.0 8.0 0.00 0.00 0.00 55 1008.7
20260505192717 74 193 2.0 9.0 0.00 0.00 0.00 55 1008.7
20260505192703 74 191 2.0 9.0 0.00 0.00 0.00 55 1008.7
20260505192603 74 159 2.0 9.0 0.00 0.00 0.00 56 1008.6
20260505192403 74 120 2.0 9.0 0.00 0.00 0.00 55 1008.7
20260505192305 74 87 2.0 9.0 0.00 0.00 0.00 55 1008.7
20260505192203 74 64 2.0 9.0 0.00 0.00 0.00 56 1008.6
20260505192103 74 61 2.0 9.0 0.00 0.00 0.00 58 1008.6
20260505192003 74 48 2.0 9.0 0.00 0.00 0.00 57 1008.6
20260505191903 74 56 2.0 9.0 0.00 0.00 0.00 57 1008.5
20260505191803 74 55 2.0 9.0 0.00 0.00 0.00 57 1008.5
20260505191703 74 64 1.0 3.0 0.00 0.00 0.00 60 1008.6
20260505191618 74 57 1.0 3.0 0.00 0.00 0.00 60 1008.6
20260505191603 74 53 1.0 3.0 0.00 0.00 0.00 60 1008.6
20260505191503 74 48 1.0 3.0 0.00 0.00 0.00 60 1008.6
20260505191303 73 46 2.0 4.0 0.00 0.00 0.00 61 1008.7
20260505191203 73 65 2.0 4.0 0.00 0.00 0.00 61 1008.8
20260505191104 73 89 2.0 4.0 0.00 0.00 0.00 61 1008.9
20260505191004 73 125 2.0 4.0 0.00 0.00 0.00 59 1008.9
20260505190918 72 213 2.0 4.0 0.00 0.00 0.00 60 1008.9
20260505190903 72 217 2.0 4.0 0.00 0.00 0.00 60 1008.9
20260505190804 72 234 2.0 4.0 0.00 0.00 0.00 61 1009.1
20260505190603 72 235 2.0 4.0 0.00 0.00 0.00 60 1009.0
20260505190503 72 219 1.0 4.0 0.00 0.00 0.00 60 1009.0
20260505190405 72 213 1.0 4.0 0.00 0.00 0.00 60 1009.3
20260505190303 72 222 1.0 4.0 0.00 0.00 0.00 59 1009.1
20260505190204 72 250 1.0 5.0 0.00 0.00 0.00 59 1009.1
20260505190103 72 264 1.0 5.0 0.00 0.00 0.00 59 1009.1
20260505190004 72 274 1.0 5.0 0.00 0.00 0.00 59 1009.1
20260505185903 72 297 1.0 5.0 0.00 0.00 0.00 60 1009.0
20260505185803 72 294 1.0 5.0 0.00 0.00 0.00 60 1009.0
20260505185704 72 279 1.0 5.0 0.00 0.00 0.00 60 1009.0
20260505185604 72 299 1.0 5.0 0.00 0.00 0.00 61 1009.0
20260505185503 72 304 1.0 7.0 0.00 0.00 0.00 61 1009.0
20260505185403 72 314 1.0 7.0 0.00 0.00 0.00 61 1009.0
20260505185305 72 318 1.0 7.0 0.00 0.00 0.00 60 1009.1
20260505185203 72 327 1.0 7.0 0.00 0.00 0.00 62 1009.1
20260505185103 72 324 1.0 7.0 0.00 0.00 0.00 59 1009.0
20260505185017 72 326 1.0 7.0 0.00 0.00 0.00 59 1009.0
20260505185003 72 323 1.0 7.0 0.00 0.00 0.00 59 1009.1
20260505184904 72 313 1.0 7.0 0.00 0.00 0.00 59 1009.1
20260505184703 72 359 1.0 7.0 0.00 0.00 0.00 59 1009.1
20260505184603 72 27 1.0 7.0 0.00 0.00 0.00 59 1009.0
20260505184504 72 18 1.0 4.0 0.00 0.00 0.00 61 1009.1
20260505184417 72 90 1.0 4.0 0.00 0.00 0.00 61 1009.1
20260505184403 72 101 1.0 4.0 0.00 0.00 0.00 61 1009.1
20260505184317 72 95 1.0 4.0 0.00 0.00 0.00 60 1008.9
20260505184304 72 93 1.0 4.0 0.00 0.00 0.00 60 1008.9
20260505184003 72 99 1.0 4.0 0.00 0.00 0.00 59 1009.0
20260505183918 72 101 2.0 4.0 0.00 0.00 0.00 60 1009.0
20260505183904 72 101 2.0 4.0 0.00 0.00 0.00 59 1009.0
20260505183803 72 107 2.0 4.0 0.00 0.00 0.00 59 1009.0
20260505183604 72 95 2.0 4.0 0.00 0.00 0.00 61 1009.0
20260505183504 72 102 2.0 4.0 0.00 0.00 0.00 59 1009.0
20260505183404 72 94 1.0 4.0 0.00 0.00 0.00 60 1009.0
20260505183303 72 109 1.0 4.0 0.00 0.00 0.00 59 1009.2
20260505183203 72 149 1.0 4.0 0.00 0.00 0.00 58 1009.2
20260505183103 72 159 1.0 4.0 0.00 0.00 0.00 58 1009.2
20260505183003 72 166 2.0 4.0 0.00 0.00 0.00 57 1009.4
20260505182904 72 152 2.0 8.0 0.00 0.00 0.00 57 1009.4
20260505182818 72 141 2.0 8.0 0.00 0.00 0.00 58 1009.5
20260505182803 72 143 2.0 8.0 0.00 0.00 0.00 58 1009.5
20260505182704 73 146 2.0 8.0 0.00 0.00 0.00 57 1009.5
20260505182504 73 143 2.0 8.0 0.00 0.00 0.00 57 1009.6
20260505182404 73 140 2.0 8.0 0.00 0.00 0.00 58 1009.6
20260505182306 73 137 2.0 8.0 0.00 0.00 0.00 57 1009.7
20260505182203 73 128 2.0 8.0 0.00 0.00 0.00 57 1009.7
20260505182103 74 135 2.0 8.0 0.00 0.00 0.00 56 1009.7
20260505182003 74 138 2.0 8.0 0.00 0.00 0.00 56 1009.7
20260505181918 74 127 2.0 7.0 0.00 0.00 0.00 58 1009.7
20260505181903 74 144 2.0 7.0 0.00 0.00 0.00 58 1009.7
20260505181818 74 159 2.0 7.0 0.00 0.00 0.00 58 1009.7
20260505181803 74 161 2.0 7.0 0.00 0.00 0.00 58 1009.7
20260505181717 74 167 2.0 6.0 0.00 0.00 0.00 57 1009.7
20260505181620 74 181 2.0 6.0 0.00 0.00 0.00 56 1009.7
20260505181303 74 183 2.0 7.0 0.00 0.00 0.00 59 1009.7
20260505181203 74 181 2.0 7.0 0.00 0.00 0.00 58 1009.6
20260505181104 74 188 2.0 7.0 0.00 0.00 0.00 56 1009.6
20260505181003 74 201 2.0 7.0 0.00 0.00 0.00 59 1009.7
20260505180903 74 214 2.0 7.0 0.00 0.00 0.00 59 1009.6
20260505180803 73 268 2.0 7.0 0.00 0.00 0.00 59 1009.6
20260505180703 73 288 2.0 7.0 0.00 0.00 0.00 57 1009.6
20260505180603 73 296 2.0 7.0 0.00 0.00 0.00 61 1009.6
20260505180503 73 290 2.0 6.0 0.00 0.00 0.00 60 1009.6
20260505180404 73 287 2.0 6.0 0.00 0.00 0.00 60 1009.6
20260505180319 73 285 2.0 6.0 0.00 0.00 0.00 60 1009.6
20260505180303 73 280 2.0 6.0 0.00 0.00 0.00 61 1009.6
20260505180218 73 289 2.0 6.0 0.00 0.00 0.00 60 1009.6
20260505180203 73 293 2.0 6.0 0.00 0.00 0.00 60 1009.6
20260505180019 72 318 2.0 6.0 0.00 0.00 0.00 60 1009.6
20260505175903 72 307 1.0 6.0 0.00 0.00 0.00 62 1009.6
20260505175703 71 300 2.0 8.0 0.00 0.00 0.00 60 1009.5
20260505175603 71 269 2.0 8.0 0.00 0.00 0.00 63 1009.6
20260505175503 71 135 2.0 8.0 0.00 0.00 0.00 61 1009.6
20260505175403 71 124 1.0 8.0 0.00 0.00 0.00 62 1009.6
20260505175305 71 138 1.0 8.0 0.00 0.00 0.00 62 1009.6
20260505175204 71 143 2.0 8.0 0.00 0.00 0.00 61 1009.5
20260505175103 71 139 2.0 8.0 0.00 0.00 0.00 61 1009.5
20260505175004 71 152 1.0 8.0 0.00 0.00 0.00 62 1009.5
20260505174904 71 155 2.0 8.0 0.00 0.00 0.00 62 1009.5
20260505174803 71 155 2.0 8.0 0.00 0.00 0.00 61 1009.6
20260505174704 71 157 1.0 4.0 0.00 0.00 0.00 62 1009.6
20260505174603 71 158 1.0 4.0 0.00 0.00 0.00 63 1009.6
20260505174504 71 159 1.0 4.0 0.00 0.00 0.00 61 1009.6
20260505174404 71 158 1.0 4.0 0.00 0.00 0.00 61 1009.7
20260505174304 71 156 1.0 4.0 0.00 0.00 0.00 60 1009.7
20260505174204 71 153 1.0 4.0 0.00 0.00 0.00 61 1009.7
20260505174103 71 154 1.0 4.0 0.00 0.00 0.00 64 1009.7
20260505174004 71 144 1.0 4.0 0.00 0.00 0.00 63 1009.7
20260505173903 71 133 1.0 4.0 0.00 0.00 0.00 63 1009.8
20260505173804 71 127 1.0 3.0 0.00 0.00 0.00 62 1009.8
20260505173704 71 133 1.0 3.0 0.00 0.00 0.00 61 1009.8
20260505173603 71 138 1.0 3.0 0.00 0.00 0.00 61 1009.9
20260505173518 71 140 1.0 3.0 0.00 0.00 0.00 61 1009.9
20260505173403 71 146 2.0 4.0 0.00 0.00 0.00 61 1010.0
20260505173319 70 148 2.0 4.0 0.00 0.00 0.00 64 1010.0
20260505173204 71 149 2.0 4.0 0.00 0.00 0.00 63 1010.0
20260505173004 71 159 2.0 6.0 0.00 0.00 0.00 60 1010.1
20260505172919 71 165 2.0 6.0 0.00 0.00 0.00 60 1010.1
20260505172904 71 168 2.0 6.0 0.00 0.00 0.00 60 1010.1
20260505172804 71 173 2.0 7.0 0.00 0.00 0.00 61 1010.1
20260505172718 71 176 2.0 7.0 0.00 0.00 0.00 63 1010.1
20260505172603 71 177 2.0 7.0 0.00 0.00 0.00 62 1010.1
20260505172403 71 173 2.0 7.0 0.00 0.00 0.00 60 1010.1
20260505172305 71 174 2.0 7.0 0.00 0.00 0.00 59 1010.1
20260505172203 71 180 2.0 7.0 0.00 0.00 0.00 60 1010.1
20260505172103 71 177 2.0 7.0 0.00 0.00 0.00 60 1010.3
20260505172003 71 180 2.0 7.0 0.00 0.00 0.00 60 1010.3
20260505171904 71 176 2.0 7.0 0.00 0.00 0.00 61 1010.3
20260505171803 71 168 2.0 6.0 0.00 0.00 0.00 60 1010.5
20260505171703 71 166 2.0 6.0 0.00 0.00 0.00 59 1010.5
20260505171603 71 168 2.0 6.0 0.00 0.00 0.00 60 1010.6
20260505171505 71 171 2.0 6.0 0.00 0.00 0.00 59 1010.6
20260505171403 72 170 2.0 6.0 0.00 0.00 0.00 60 1010.6
20260505171304 72 171 2.0 6.0 0.00 0.00 0.00 58 1010.7
20260505171204 72 168 2.0 6.0 0.00 0.00 0.00 58 1010.6
20260505171104 72 163 2.0 6.0 0.00 0.00 0.00 58 1010.6
20260505171003 72 164 2.0 6.0 0.00 0.00 0.00 59 1010.6
20260505170903 72 160 2.0 6.0 0.00 0.00 0.00 60 1010.6
20260505170803 72 157 2.0 6.0 0.00 0.00 0.00 60 1010.6
20260505170703 72 156 2.0 6.0 0.00 0.00 0.00 59 1010.6
20260505170603 72 155 2.0 6.0 0.00 0.00 0.00 59 1010.6
20260505170504 72 154 2.0 6.0 0.00 0.00 0.00 60 1010.7
20260505170418 72 159 2.0 4.0 0.00 0.00 0.00 60 1010.8
20260505170404 72 159 2.0 6.0 0.00 0.00 0.00 61 1010.8
20260505170304 72 155 2.0 6.0 0.00 0.00 0.00 62 1010.8
20260505170103 72 158 2.0 8.0 0.00 0.00 0.00 60 1010.7
20260505170005 72 159 2.0 8.0 0.00 0.00 0.00 62 1010.7
20260505165955 72 160 2.0 8.0 0.00 0.00 0.00 60 1010.7
20260505165804 72 162 2.0 8.0 0.00 0.00 0.00 60 1010.7
20260505165703 72 159 2.0 8.0 0.00 0.00 0.00 60 1010.8
20260505165603 73 155 2.0 8.0 0.00 0.00 0.00 61 1010.8
20260505165503 73 153 2.0 8.0 0.00 0.00 0.00 60 1010.8
20260505165404 73 150 2.0 8.0 0.00 0.00 0.00 60 1010.8
20260505165305 73 149 2.0 8.0 0.00 0.00 0.00 60 1010.8
20260505165204 73 143 2.0 6.0 0.00 0.00 0.00 60 1010.9
20260505165118 73 140 2.0 6.0 0.00 0.00 0.00 58 1010.9
20260505165104 73 139 2.0 6.0 0.00 0.00 0.00 58 1010.9
20260505165003 74 127 1.0 6.0 0.00 0.00 0.00 57 1010.9
20260505164804 74 131 1.0 4.0 0.00 0.00 0.00 60 1010.8
20260505164703 74 136 1.0 4.0 0.00 0.00 0.00 59 1010.8
20260505164603 74 144 1.0 4.0 0.00 0.00 0.00 59 1010.8
20260505164504 74 149 1.0 4.0 0.00 0.00 0.00 60 1010.8
20260505164403 74 157 1.0 4.0 0.00 0.00 0.00 60 1010.9
20260505164303 74 165 1.0 4.0 0.00 0.00 0.00 59 1010.9
20260505164203 74 170 1.0 4.0 0.00 0.00 0.00 61 1010.9
20260505164103 74 174 1.0 4.0 0.00 0.00 0.00 61 1011.0
20260505164004 74 178 1.0 4.0 0.00 0.00 0.00 60 1011.0
20260505163903 74 187 1.0 3.0 0.00 0.00 0.00 61 1010.9
20260505163803 74 186 1.0 2.0 0.00 0.00 0.00 60 1010.9
20260505163603 74 133 1.0 3.0 0.00 0.00 0.00 59 1010.9
20260505163504 74 139 1.0 4.0 0.00 0.00 0.00 59 1010.9
20260505163404 74 127 1.0 4.0 0.00 0.00 0.00 60 1010.9
20260505163204 74 123 1.0 4.0 0.00 0.00 0.00 59 1011.0
20260505163118 74 128 1.0 4.0 0.00 0.00 0.00 59 1010.9
20260505163103 74 132 1.0 4.0 0.00 0.00 0.00 59 1010.9
20260505163004 74 140 1.0 4.0 0.00 0.00 0.00 60 1011.0
20260505162803 74 138 2.0 4.0 0.00 0.00 0.00 60 1010.9
20260505162704 74 138 2.0 4.0 0.00 0.00 0.00 60 1010.9
20260505162603 74 126 1.0 4.0 0.00 0.00 0.00 59 1010.9
20260505162517 74 112 1.0 4.0 0.00 0.00 0.00 60 1010.9
20260505162503 74 101 1.0 4.0 0.00 0.00 0.00 60 1010.9
20260505162403 74 72 1.0 4.0 0.00 0.00 0.00 60 1010.9
20260505162204 74 34 1.0 4.0 0.00 0.00 0.00 59 1011.0
20260505162103 74 23 1.0 4.0 0.00 0.00 0.00 59 1011.0
20260505162004 74 15 1.0 4.0 0.00 0.00 0.00 59 1011.1
20260505161904 74 2 1.0 4.0 0.00 0.00 0.00 60 1011.1
20260505161803 74 351 1.0 3.0 0.00 0.00 0.00 60 1011.2
20260505161703 74 344 1.0 3.0 0.00 0.00 0.00 60 1011.3
20260505161603 74 335 1.0 3.0 0.00 0.00 0.00 60 1011.3
20260505161503 74 323 1.0 3.0 0.00 0.00 0.00 60 1011.2
20260505161418 74 307 1.0 3.0 0.00 0.00 0.00 61 1011.2
20260505161403 74 289 1.0 3.0 0.00 0.00 0.00 61 1011.2
20260505161316 74 268 1.0 3.0 0.00 0.00 0.00 62 1011.3
20260505161303 74 264 1.0 3.0 0.00 0.00 0.00 62 1011.3
20260505161217 74 235 1.0 3.0 0.00 0.00 0.00 61 1011.3
20260505161118 74 216 1.0 3.0 0.00 0.00 0.00 61 1011.4
20260505160917 74 199 1.0 3.0 0.00 0.00 0.00 61 1011.3
20260505160803 74 190 1.0 3.0 0.00 0.00 0.00 61 1011.4
20260505160603 74 186 1.0 3.0 0.00 0.00 0.00 62 1011.4
20260505160504 74 187 1.0 4.0 0.00 0.00 0.00 62 1011.4
20260505160403 74 187 1.0 4.0 0.00 0.00 0.00 62 1011.4
20260505160303 74 188 1.0 4.0 0.00 0.00 0.00 61 1011.5
20260505160203 74 188 1.0 4.0 0.00 0.00 0.00 61 1011.4
20260505153303 72 167 1.0 4.0 0.00 0.00 0.00 63 1011.3
20260505153203 72 166 1.0 4.0 0.00 0.00 0.00 62 1011.2
20260505153103 72 163 1.0 4.0 0.00 0.00 0.00 63 1011.1
20260505153003 72 160 1.0 4.0 0.00 0.00 0.00 64 1011.1
20260505152903 72 157 1.0 4.0 0.00 0.00 0.00 64 1011.1
20260505152803 72 154 1.0 3.0 0.00 0.00 0.00 64 1011.1
20260505152703 72 151 1.0 3.0 0.00 0.00 0.00 63 1011.1
20260505152604 71 144 1.0 3.0 0.00 0.00 0.00 64 1011.0
20260505152404 71 126 1.0 3.0 0.00 0.00 0.00 64 1010.9
20260505152305 71 114 1.0 3.0 0.00 0.00 0.00 64 1011.0
20260505152203 71 114 1.0 3.0 0.00 0.00 0.00 66 1011.0
20260505152104 71 108 1.0 3.0 0.00 0.00 0.00 66 1011.0
20260505152003 71 101 1.0 3.0 0.00 0.00 0.00 65 1011.0
20260505151916 71 109 1.0 3.0 0.00 0.00 0.00 65 1011.0
20260505151903 71 113 1.0 3.0 0.00 0.00 0.00 66 1011.0
20260505151803 71 120 1.0 3.0 0.00 0.00 0.00 66 1011.0
20260505151603 70 125 1.0 6.0 0.00 0.00 0.00 65 1011.1
20260505151503 70 140 1.0 6.0 0.00 0.00 0.00 65 1011.1
20260505151404 70 144 1.0 6.0 0.00 0.00 0.00 66 1011.0
20260505151303 70 153 1.0 6.0 0.00 0.00 0.00 66 1011.0
20260505151204 70 156 1.0 6.0 0.00 0.00 0.00 67 1011.0
20260505151104 70 166 1.0 6.0 0.00 0.00 0.00 67 1011.0
20260505151003 70 179 1.0 6.0 0.00 0.00 0.00 67 1011.0
20260505150903 70 193 1.0 6.0 0.00 0.00 0.00 67 1011.0
20260505150803 70 207 1.0 6.0 0.00 0.00 0.00 66 1011.0
20260505150703 70 227 1.0 4.0 0.00 0.00 0.00 66 1011.0
20260505150604 70 238 1.0 4.0 0.00 0.00 0.00 67 1010.9
20260505150503 70 256 1.0 3.0 0.00 0.00 0.00 66 1010.9
20260505150403 70 261 1.0 3.0 0.00 0.00 0.00 66 1010.9
20260505150303 69 275 1.0 2.0 0.00 0.00 0.00 66 1010.9
20260505150203 69 273 1.0 2.0 0.00 0.00 0.00 65 1010.9